<?xml version="1.0"?>
<gpx xmlns="http://www.topografix.com/GPX/1/1" xmlns:xsi="http://www.w3.org/2001/XMLSchema-instance" version="1.1" creator="GPX RubyGem 1.0.0 -- http://dougfales.github.io/gpx/" xsi:schemaLocation="http://www.topografix.com/GPX/1/1 http://www.topografix.com/GPX/1/1/gpx.xsd">
  <metadata>
    <name/>
    <time>2026-05-07T05:57:49+00:00</time>
    <bound minlat="90.0" minlon="180.0" maxlat="-90.0" maxlon="-180.0"/>
  </metadata>
  <trk>
    <name/>
    <trkseg>
      <trkpt lat="46.794846" lon="11.090118">
        <time>1970-01-01T00:00:00+00:00</time>
        <ele>1639.0</ele>
      </trkpt>
      <trkpt lat="46.794819" lon="11.090139">
        <time>1970-01-01T00:00:00+00:00</time>
        <ele>1640.0</ele>
      </trkpt>
      <trkpt lat="46.794884" lon="11.090266">
        <time>1970-01-01T00:00:00+00:00</time>
        <ele>1639.0</ele>
      </trkpt>
      <trkpt lat="46.794825" lon="11.090345">
        <time>1970-01-01T00:00:00+00:00</time>
        <ele>1641.0</ele>
      </trkpt>
      <trkpt lat="46.794506" lon="11.090725">
        <time>1970-01-01T00:00:00+00:00</time>
        <ele>1662.0</ele>
      </trkpt>
      <trkpt lat="46.794605" lon="11.090892">
        <time>1970-01-01T00:00:00+00:00</time>
        <ele>1659.0</ele>
      </trkpt>
      <trkpt lat="46.794718" lon="11.091138">
        <time>1970-01-01T00:00:00+00:00</time>
        <ele>1661.0</ele>
      </trkpt>
      <trkpt lat="46.794824" lon="11.091197">
        <time>1970-01-01T00:00:00+00:00</time>
        <ele>1659.0</ele>
      </trkpt>
      <trkpt lat="46.794925" lon="11.09135">
        <time>1970-01-01T00:00:00+00:00</time>
        <ele>1658.0</ele>
      </trkpt>
      <trkpt lat="46.794944" lon="11.091538">
        <time>1970-01-01T00:00:00+00:00</time>
        <ele>1656.0</ele>
      </trkpt>
      <trkpt lat="46.794892" lon="11.091759">
        <time>1970-01-01T00:00:00+00:00</time>
        <ele>1659.0</ele>
      </trkpt>
      <trkpt lat="46.794676" lon="11.092146">
        <time>1970-01-01T00:00:00+00:00</time>
        <ele>1671.0</ele>
      </trkpt>
      <trkpt lat="46.794594" lon="11.092339">
        <time>1970-01-01T00:00:00+00:00</time>
        <ele>1678.0</ele>
      </trkpt>
      <trkpt lat="46.794554" lon="11.092477">
        <time>1970-01-01T00:00:00+00:00</time>
        <ele>1683.0</ele>
      </trkpt>
      <trkpt lat="46.794538" lon="11.092491">
        <time>1970-01-01T00:00:00+00:00</time>
        <ele>1684.0</ele>
      </trkpt>
      <trkpt lat="46.794508" lon="11.092517">
        <time>1970-01-01T00:00:00+00:00</time>
        <ele>1686.0</ele>
      </trkpt>
      <trkpt lat="46.794506" lon="11.092577">
        <time>1970-01-01T00:00:00+00:00</time>
        <ele>1688.0</ele>
      </trkpt>
      <trkpt lat="46.79462" lon="11.092839">
        <time>1970-01-01T00:00:00+00:00</time>
        <ele>1695.0</ele>
      </trkpt>
      <trkpt lat="46.79466" lon="11.092976">
        <time>1970-01-01T00:00:00+00:00</time>
        <ele>1700.0</ele>
      </trkpt>
      <trkpt lat="46.794833" lon="11.093226">
        <time>1970-01-01T00:00:00+00:00</time>
        <ele>1703.0</ele>
      </trkpt>
      <trkpt lat="46.79491" lon="11.093396">
        <time>1970-01-01T00:00:00+00:00</time>
        <ele>1705.0</ele>
      </trkpt>
      <trkpt lat="46.794982" lon="11.093638">
        <time>1970-01-01T00:00:00+00:00</time>
        <ele>1708.0</ele>
      </trkpt>
      <trkpt lat="46.795012" lon="11.093941">
        <time>1970-01-01T00:00:00+00:00</time>
        <ele>1713.0</ele>
      </trkpt>
      <trkpt lat="46.795077" lon="11.094171">
        <time>1970-01-01T00:00:00+00:00</time>
        <ele>1715.0</ele>
      </trkpt>
      <trkpt lat="46.794989" lon="11.094087">
        <time>1970-01-01T00:00:00+00:00</time>
        <ele>1717.0</ele>
      </trkpt>
      <trkpt lat="46.794906" lon="11.093938">
        <time>1970-01-01T00:00:00+00:00</time>
        <ele>1718.0</ele>
      </trkpt>
      <trkpt lat="46.794702" lon="11.093866">
        <time>1970-01-01T00:00:00+00:00</time>
        <ele>1724.0</ele>
      </trkpt>
      <trkpt lat="46.794236" lon="11.093931">
        <time>1970-01-01T00:00:00+00:00</time>
        <ele>1744.0</ele>
      </trkpt>
      <trkpt lat="46.794043" lon="11.093865">
        <time>1970-01-01T00:00:00+00:00</time>
        <ele>1746.0</ele>
      </trkpt>
      <trkpt lat="46.793867" lon="11.093776">
        <time>1970-01-01T00:00:00+00:00</time>
        <ele>1748.0</ele>
      </trkpt>
      <trkpt lat="46.793816" lon="11.093939">
        <time>1970-01-01T00:00:00+00:00</time>
        <ele>1754.0</ele>
      </trkpt>
      <trkpt lat="46.793835" lon="11.094266">
        <time>1970-01-01T00:00:00+00:00</time>
        <ele>1767.0</ele>
      </trkpt>
      <trkpt lat="46.794112" lon="11.095562">
        <time>1970-01-01T00:00:00+00:00</time>
        <ele>1798.0</ele>
      </trkpt>
      <trkpt lat="46.794076" lon="11.095629">
        <time>1970-01-01T00:00:00+00:00</time>
        <ele>1802.0</ele>
      </trkpt>
      <trkpt lat="46.794004" lon="11.095613">
        <time>1970-01-01T00:00:00+00:00</time>
        <ele>1806.0</ele>
      </trkpt>
      <trkpt lat="46.793559" lon="11.095296">
        <time>1970-01-01T00:00:00+00:00</time>
        <ele>1818.0</ele>
      </trkpt>
      <trkpt lat="46.792998" lon="11.09506">
        <time>1970-01-01T00:00:00+00:00</time>
        <ele>1818.0</ele>
      </trkpt>
      <trkpt lat="46.792923" lon="11.095063">
        <time>1970-01-01T00:00:00+00:00</time>
        <ele>1820.0</ele>
      </trkpt>
      <trkpt lat="46.792966" lon="11.09515">
        <time>1970-01-01T00:00:00+00:00</time>
        <ele>1821.0</ele>
      </trkpt>
      <trkpt lat="46.79301" lon="11.0956">
        <time>1970-01-01T00:00:00+00:00</time>
        <ele>1832.0</ele>
      </trkpt>
      <trkpt lat="46.792964" lon="11.095869">
        <time>1970-01-01T00:00:00+00:00</time>
        <ele>1842.0</ele>
      </trkpt>
      <trkpt lat="46.793001" lon="11.095977">
        <time>1970-01-01T00:00:00+00:00</time>
        <ele>1845.0</ele>
      </trkpt>
      <trkpt lat="46.792924" lon="11.096116">
        <time>1970-01-01T00:00:00+00:00</time>
        <ele>1853.0</ele>
      </trkpt>
      <trkpt lat="46.792804" lon="11.096087">
        <time>1970-01-01T00:00:00+00:00</time>
        <ele>1856.0</ele>
      </trkpt>
      <trkpt lat="46.792612" lon="11.095823">
        <time>1970-01-01T00:00:00+00:00</time>
        <ele>1850.0</ele>
      </trkpt>
      <trkpt lat="46.792275" lon="11.095822">
        <time>1970-01-01T00:00:00+00:00</time>
        <ele>1857.0</ele>
      </trkpt>
      <trkpt lat="46.791717" lon="11.095686">
        <time>1970-01-01T00:00:00+00:00</time>
        <ele>1866.0</ele>
      </trkpt>
      <trkpt lat="46.791571" lon="11.095618">
        <time>1970-01-01T00:00:00+00:00</time>
        <ele>1868.0</ele>
      </trkpt>
      <trkpt lat="46.791376" lon="11.095366">
        <time>1970-01-01T00:00:00+00:00</time>
        <ele>1869.0</ele>
      </trkpt>
      <trkpt lat="46.791272" lon="11.095008">
        <time>1970-01-01T00:00:00+00:00</time>
        <ele>1873.0</ele>
      </trkpt>
      <trkpt lat="46.791232" lon="11.094892">
        <time>1970-01-01T00:00:00+00:00</time>
        <ele>1875.0</ele>
      </trkpt>
      <trkpt lat="46.791054" lon="11.094625">
        <time>1970-01-01T00:00:00+00:00</time>
        <ele>1884.0</ele>
      </trkpt>
      <trkpt lat="46.790795" lon="11.094071">
        <time>1970-01-01T00:00:00+00:00</time>
        <ele>1890.0</ele>
      </trkpt>
      <trkpt lat="46.790586" lon="11.093919">
        <time>1970-01-01T00:00:00+00:00</time>
        <ele>1897.0</ele>
      </trkpt>
      <trkpt lat="46.790424" lon="11.09371">
        <time>1970-01-01T00:00:00+00:00</time>
        <ele>1899.0</ele>
      </trkpt>
      <trkpt lat="46.790354" lon="11.093667">
        <time>1970-01-01T00:00:00+00:00</time>
        <ele>1902.0</ele>
      </trkpt>
      <trkpt lat="46.790329" lon="11.093742">
        <time>1970-01-01T00:00:00+00:00</time>
        <ele>1904.0</ele>
      </trkpt>
      <trkpt lat="46.790512" lon="11.094098">
        <time>1970-01-01T00:00:00+00:00</time>
        <ele>1900.0</ele>
      </trkpt>
      <trkpt lat="46.790493" lon="11.095077">
        <time>1970-01-01T00:00:00+00:00</time>
        <ele>1907.0</ele>
      </trkpt>
      <trkpt lat="46.790254" lon="11.095372">
        <time>1970-01-01T00:00:00+00:00</time>
        <ele>1917.0</ele>
      </trkpt>
      <trkpt lat="46.790174" lon="11.09554">
        <time>1970-01-01T00:00:00+00:00</time>
        <ele>1923.0</ele>
      </trkpt>
      <trkpt lat="46.790133" lon="11.09579">
        <time>1970-01-01T00:00:00+00:00</time>
        <ele>1929.0</ele>
      </trkpt>
      <trkpt lat="46.790225" lon="11.09599">
        <time>1970-01-01T00:00:00+00:00</time>
        <ele>1928.0</ele>
      </trkpt>
      <trkpt lat="46.79077" lon="11.09699">
        <time>1970-01-01T00:00:00+00:00</time>
        <ele>1936.0</ele>
      </trkpt>
      <trkpt lat="46.791116" lon="11.097438">
        <time>1970-01-01T00:00:00+00:00</time>
        <ele>1938.0</ele>
      </trkpt>
      <trkpt lat="46.791409" lon="11.098084">
        <time>1970-01-01T00:00:00+00:00</time>
        <ele>1951.0</ele>
      </trkpt>
      <trkpt lat="46.791649" lon="11.098446">
        <time>1970-01-01T00:00:00+00:00</time>
        <ele>1956.0</ele>
      </trkpt>
      <trkpt lat="46.791914" lon="11.098801">
        <time>1970-01-01T00:00:00+00:00</time>
        <ele>1962.0</ele>
      </trkpt>
      <trkpt lat="46.791971" lon="11.098923">
        <time>1970-01-01T00:00:00+00:00</time>
        <ele>1964.0</ele>
      </trkpt>
      <trkpt lat="46.792462" lon="11.099855">
        <time>1970-01-01T00:00:00+00:00</time>
        <ele>1973.0</ele>
      </trkpt>
      <trkpt lat="46.792399" lon="11.100242">
        <time>1970-01-01T00:00:00+00:00</time>
        <ele>1978.0</ele>
      </trkpt>
      <trkpt lat="46.792403" lon="11.100581">
        <time>1970-01-01T00:00:00+00:00</time>
        <ele>1982.0</ele>
      </trkpt>
      <trkpt lat="46.792561" lon="11.100982">
        <time>1970-01-01T00:00:00+00:00</time>
        <ele>1983.0</ele>
      </trkpt>
      <trkpt lat="46.792498" lon="11.101023">
        <time>1970-01-01T00:00:00+00:00</time>
        <ele>1986.0</ele>
      </trkpt>
      <trkpt lat="46.7924" lon="11.100905">
        <time>1970-01-01T00:00:00+00:00</time>
        <ele>1987.0</ele>
      </trkpt>
      <trkpt lat="46.792156" lon="11.100356">
        <time>1970-01-01T00:00:00+00:00</time>
        <ele>1986.0</ele>
      </trkpt>
      <trkpt lat="46.791906" lon="11.100435">
        <time>1970-01-01T00:00:00+00:00</time>
        <ele>1992.0</ele>
      </trkpt>
      <trkpt lat="46.791434" lon="11.100584">
        <time>1970-01-01T00:00:00+00:00</time>
        <ele>2002.0</ele>
      </trkpt>
      <trkpt lat="46.790865" lon="11.100814">
        <time>1970-01-01T00:00:00+00:00</time>
        <ele>2013.0</ele>
      </trkpt>
      <trkpt lat="46.790483" lon="11.100857">
        <time>1970-01-01T00:00:00+00:00</time>
        <ele>2019.0</ele>
      </trkpt>
      <trkpt lat="46.789393" lon="11.100787">
        <time>1970-01-01T00:00:00+00:00</time>
        <ele>2032.0</ele>
      </trkpt>
      <trkpt lat="46.789356" lon="11.100854">
        <time>1970-01-01T00:00:00+00:00</time>
        <ele>2034.0</ele>
      </trkpt>
      <trkpt lat="46.789412" lon="11.101027">
        <time>1970-01-01T00:00:00+00:00</time>
        <ele>2036.0</ele>
      </trkpt>
      <trkpt lat="46.789687" lon="11.101579">
        <time>1970-01-01T00:00:00+00:00</time>
        <ele>2046.0</ele>
      </trkpt>
      <trkpt lat="46.789984" lon="11.101689">
        <time>1970-01-01T00:00:00+00:00</time>
        <ele>2046.0</ele>
      </trkpt>
      <trkpt lat="46.790405" lon="11.10196">
        <time>1970-01-01T00:00:00+00:00</time>
        <ele>2050.0</ele>
      </trkpt>
      <trkpt lat="46.790485" lon="11.102034">
        <time>1970-01-01T00:00:00+00:00</time>
        <ele>2052.0</ele>
      </trkpt>
      <trkpt lat="46.790424" lon="11.10208">
        <time>1970-01-01T00:00:00+00:00</time>
        <ele>2054.0</ele>
      </trkpt>
      <trkpt lat="46.790222" lon="11.102066">
        <time>1970-01-01T00:00:00+00:00</time>
        <ele>2054.0</ele>
      </trkpt>
      <trkpt lat="46.790057" lon="11.102132">
        <time>1970-01-01T00:00:00+00:00</time>
        <ele>2059.0</ele>
      </trkpt>
      <trkpt lat="46.78994" lon="11.102115">
        <time>1970-01-01T00:00:00+00:00</time>
        <ele>2059.0</ele>
      </trkpt>
      <trkpt lat="46.789234" lon="11.102166">
        <time>1970-01-01T00:00:00+00:00</time>
        <ele>2075.0</ele>
      </trkpt>
      <trkpt lat="46.788921" lon="11.102056">
        <time>1970-01-01T00:00:00+00:00</time>
        <ele>2077.0</ele>
      </trkpt>
      <trkpt lat="46.788485" lon="11.10178">
        <time>1970-01-01T00:00:00+00:00</time>
        <ele>2083.0</ele>
      </trkpt>
      <trkpt lat="46.788273" lon="11.101592">
        <time>1970-01-01T00:00:00+00:00</time>
        <ele>2087.0</ele>
      </trkpt>
      <trkpt lat="46.787993" lon="11.101167">
        <time>1970-01-01T00:00:00+00:00</time>
        <ele>2093.0</ele>
      </trkpt>
      <trkpt lat="46.78787" lon="11.100816">
        <time>1970-01-01T00:00:00+00:00</time>
        <ele>2094.0</ele>
      </trkpt>
      <trkpt lat="46.787811" lon="11.100833">
        <time>1970-01-01T00:00:00+00:00</time>
        <ele>2096.0</ele>
      </trkpt>
      <trkpt lat="46.787765" lon="11.100986">
        <time>1970-01-01T00:00:00+00:00</time>
        <ele>2099.0</ele>
      </trkpt>
      <trkpt lat="46.787755" lon="11.101416">
        <time>1970-01-01T00:00:00+00:00</time>
        <ele>2106.0</ele>
      </trkpt>
      <trkpt lat="46.787926" lon="11.101815">
        <time>1970-01-01T00:00:00+00:00</time>
        <ele>2106.0</ele>
      </trkpt>
      <trkpt lat="46.787971" lon="11.102175">
        <time>1970-01-01T00:00:00+00:00</time>
        <ele>2109.0</ele>
      </trkpt>
      <trkpt lat="46.787882" lon="11.102511">
        <time>1970-01-01T00:00:00+00:00</time>
        <ele>2118.0</ele>
      </trkpt>
      <trkpt lat="46.787921" lon="11.102623">
        <time>1970-01-01T00:00:00+00:00</time>
        <ele>2119.0</ele>
      </trkpt>
      <trkpt lat="46.788327" lon="11.1029">
        <time>1970-01-01T00:00:00+00:00</time>
        <ele>2121.0</ele>
      </trkpt>
      <trkpt lat="46.788348" lon="11.103006">
        <time>1970-01-01T00:00:00+00:00</time>
        <ele>2124.0</ele>
      </trkpt>
      <trkpt lat="46.78825" lon="11.103041">
        <time>1970-01-01T00:00:00+00:00</time>
        <ele>2127.0</ele>
      </trkpt>
      <trkpt lat="46.788125" lon="11.102965">
        <time>1970-01-01T00:00:00+00:00</time>
        <ele>2125.0</ele>
      </trkpt>
      <trkpt lat="46.787809" lon="11.103003">
        <time>1970-01-01T00:00:00+00:00</time>
        <ele>2131.0</ele>
      </trkpt>
      <trkpt lat="46.787726" lon="11.103037">
        <time>1970-01-01T00:00:00+00:00</time>
        <ele>2134.0</ele>
      </trkpt>
      <trkpt lat="46.787648" lon="11.103003">
        <time>1970-01-01T00:00:00+00:00</time>
        <ele>2135.0</ele>
      </trkpt>
      <trkpt lat="46.787538" lon="11.102887">
        <time>1970-01-01T00:00:00+00:00</time>
        <ele>2137.0</ele>
      </trkpt>
      <trkpt lat="46.787392" lon="11.102445">
        <time>1970-01-01T00:00:00+00:00</time>
        <ele>2136.0</ele>
      </trkpt>
      <trkpt lat="46.787309" lon="11.102295">
        <time>1970-01-01T00:00:00+00:00</time>
        <ele>2136.0</ele>
      </trkpt>
      <trkpt lat="46.787228" lon="11.102248">
        <time>1970-01-01T00:00:00+00:00</time>
        <ele>2138.0</ele>
      </trkpt>
      <trkpt lat="46.786703" lon="11.102052">
        <time>1970-01-01T00:00:00+00:00</time>
        <ele>2147.0</ele>
      </trkpt>
      <trkpt lat="46.786369" lon="11.101673">
        <time>1970-01-01T00:00:00+00:00</time>
        <ele>2152.0</ele>
      </trkpt>
      <trkpt lat="46.786222" lon="11.10163">
        <time>1970-01-01T00:00:00+00:00</time>
        <ele>2155.0</ele>
      </trkpt>
      <trkpt lat="46.78566" lon="11.101653">
        <time>1970-01-01T00:00:00+00:00</time>
        <ele>2167.0</ele>
      </trkpt>
      <trkpt lat="46.785505" lon="11.101613">
        <time>1970-01-01T00:00:00+00:00</time>
        <ele>2169.0</ele>
      </trkpt>
      <trkpt lat="46.785366" lon="11.101475">
        <time>1970-01-01T00:00:00+00:00</time>
        <ele>2169.0</ele>
      </trkpt>
      <trkpt lat="46.785219" lon="11.101443">
        <time>1970-01-01T00:00:00+00:00</time>
        <ele>2171.0</ele>
      </trkpt>
      <trkpt lat="46.785124" lon="11.101491">
        <time>1970-01-01T00:00:00+00:00</time>
        <ele>2173.0</ele>
      </trkpt>
      <trkpt lat="46.785025" lon="11.101481">
        <time>1970-01-01T00:00:00+00:00</time>
        <ele>2175.0</ele>
      </trkpt>
      <trkpt lat="46.784878" lon="11.10118">
        <time>1970-01-01T00:00:00+00:00</time>
        <ele>2173.0</ele>
      </trkpt>
      <trkpt lat="46.784698" lon="11.101009">
        <time>1970-01-01T00:00:00+00:00</time>
        <ele>2174.0</ele>
      </trkpt>
      <trkpt lat="46.784518" lon="11.100858">
        <time>1970-01-01T00:00:00+00:00</time>
        <ele>2175.0</ele>
      </trkpt>
      <trkpt lat="46.784419" lon="11.100928">
        <time>1970-01-01T00:00:00+00:00</time>
        <ele>2179.0</ele>
      </trkpt>
      <trkpt lat="46.784332" lon="11.100936">
        <time>1970-01-01T00:00:00+00:00</time>
        <ele>2182.0</ele>
      </trkpt>
      <trkpt lat="46.78423" lon="11.100837">
        <time>1970-01-01T00:00:00+00:00</time>
        <ele>2183.0</ele>
      </trkpt>
      <trkpt lat="46.784061" lon="11.100762">
        <time>1970-01-01T00:00:00+00:00</time>
        <ele>2186.0</ele>
      </trkpt>
      <trkpt lat="46.78384" lon="11.100558">
        <time>1970-01-01T00:00:00+00:00</time>
        <ele>2188.0</ele>
      </trkpt>
      <trkpt lat="46.783604" lon="11.100551">
        <time>1970-01-01T00:00:00+00:00</time>
        <ele>2194.0</ele>
      </trkpt>
      <trkpt lat="46.783547" lon="11.100611">
        <time>1970-01-01T00:00:00+00:00</time>
        <ele>2196.0</ele>
      </trkpt>
      <trkpt lat="46.783282" lon="11.100493">
        <time>1970-01-01T00:00:00+00:00</time>
        <ele>2202.0</ele>
      </trkpt>
      <trkpt lat="46.783106" lon="11.100461">
        <time>1970-01-01T00:00:00+00:00</time>
        <ele>2209.0</ele>
      </trkpt>
      <trkpt lat="46.782996" lon="11.100386">
        <time>1970-01-01T00:00:00+00:00</time>
        <ele>2212.0</ele>
      </trkpt>
      <trkpt lat="46.782944" lon="11.100418">
        <time>1970-01-01T00:00:00+00:00</time>
        <ele>2214.0</ele>
      </trkpt>
      <trkpt lat="46.78293" lon="11.100547">
        <time>1970-01-01T00:00:00+00:00</time>
        <ele>2217.0</ele>
      </trkpt>
      <trkpt lat="46.7829" lon="11.100644">
        <time>1970-01-01T00:00:00+00:00</time>
        <ele>2219.0</ele>
      </trkpt>
      <trkpt lat="46.782834" lon="11.100665">
        <time>1970-01-01T00:00:00+00:00</time>
        <ele>2222.0</ele>
      </trkpt>
      <trkpt lat="46.782768" lon="11.100719">
        <time>1970-01-01T00:00:00+00:00</time>
        <ele>2226.0</ele>
      </trkpt>
      <trkpt lat="46.782731" lon="11.10089">
        <time>1970-01-01T00:00:00+00:00</time>
        <ele>2230.0</ele>
      </trkpt>
      <trkpt lat="46.782663" lon="11.100863">
        <time>1970-01-01T00:00:00+00:00</time>
        <ele>2233.0</ele>
      </trkpt>
      <trkpt lat="46.782584" lon="11.10088">
        <time>1970-01-01T00:00:00+00:00</time>
        <ele>2237.0</ele>
      </trkpt>
      <trkpt lat="46.78254" lon="11.100944">
        <time>1970-01-01T00:00:00+00:00</time>
        <ele>2240.0</ele>
      </trkpt>
      <trkpt lat="46.782474" lon="11.100955">
        <time>1970-01-01T00:00:00+00:00</time>
        <ele>2244.0</ele>
      </trkpt>
      <trkpt lat="46.782309" lon="11.101126">
        <time>1970-01-01T00:00:00+00:00</time>
        <ele>2256.0</ele>
      </trkpt>
      <trkpt lat="46.7822" lon="11.101131">
        <time>1970-01-01T00:00:00+00:00</time>
        <ele>2262.0</ele>
      </trkpt>
      <trkpt lat="46.782143" lon="11.101244">
        <time>1970-01-01T00:00:00+00:00</time>
        <ele>2268.0</ele>
      </trkpt>
      <trkpt lat="46.782074" lon="11.101234">
        <time>1970-01-01T00:00:00+00:00</time>
        <ele>2271.0</ele>
      </trkpt>
      <trkpt lat="46.782046" lon="11.10127">
        <time>1970-01-01T00:00:00+00:00</time>
        <ele>2273.0</ele>
      </trkpt>
      <trkpt lat="46.782017" lon="11.101259">
        <time>1970-01-01T00:00:00+00:00</time>
        <ele>2274.0</ele>
      </trkpt>
      <trkpt lat="46.781952" lon="11.101185">
        <time>1970-01-01T00:00:00+00:00</time>
        <ele>2275.0</ele>
      </trkpt>
      <trkpt lat="46.781892" lon="11.101147">
        <time>1970-01-01T00:00:00+00:00</time>
        <ele>2277.0</ele>
      </trkpt>
      <trkpt lat="46.781853" lon="11.101207">
        <time>1970-01-01T00:00:00+00:00</time>
        <ele>2280.0</ele>
      </trkpt>
      <trkpt lat="46.781861" lon="11.101244">
        <time>1970-01-01T00:00:00+00:00</time>
        <ele>2281.0</ele>
      </trkpt>
      <trkpt lat="46.78184" lon="11.101329">
        <time>1970-01-01T00:00:00+00:00</time>
        <ele>2284.0</ele>
      </trkpt>
      <trkpt lat="46.781796" lon="11.101351">
        <time>1970-01-01T00:00:00+00:00</time>
        <ele>2286.0</ele>
      </trkpt>
      <trkpt lat="46.781749" lon="11.101324">
        <time>1970-01-01T00:00:00+00:00</time>
        <ele>2288.0</ele>
      </trkpt>
      <trkpt lat="46.781644" lon="11.10133">
        <time>1970-01-01T00:00:00+00:00</time>
        <ele>2294.0</ele>
      </trkpt>
      <trkpt lat="46.781589" lon="11.101405">
        <time>1970-01-01T00:00:00+00:00</time>
        <ele>2298.0</ele>
      </trkpt>
      <trkpt lat="46.781506" lon="11.101453">
        <time>1970-01-01T00:00:00+00:00</time>
        <ele>2302.0</ele>
      </trkpt>
      <trkpt lat="46.781491" lon="11.101517">
        <time>1970-01-01T00:00:00+00:00</time>
        <ele>2304.0</ele>
      </trkpt>
      <trkpt lat="46.781434" lon="11.101534">
        <time>1970-01-01T00:00:00+00:00</time>
        <ele>2306.0</ele>
      </trkpt>
      <trkpt lat="46.781418" lon="11.101581">
        <time>1970-01-01T00:00:00+00:00</time>
        <ele>2307.0</ele>
      </trkpt>
      <trkpt lat="46.781385" lon="11.101608">
        <time>1970-01-01T00:00:00+00:00</time>
        <ele>2308.0</ele>
      </trkpt>
      <trkpt lat="46.781381" lon="11.10164">
        <time>1970-01-01T00:00:00+00:00</time>
        <ele>2309.0</ele>
      </trkpt>
      <trkpt lat="46.781223" lon="11.101576">
        <time>1970-01-01T00:00:00+00:00</time>
        <ele>2315.0</ele>
      </trkpt>
      <trkpt lat="46.78112" lon="11.101613">
        <time>1970-01-01T00:00:00+00:00</time>
        <ele>2320.0</ele>
      </trkpt>
      <trkpt lat="46.78109" lon="11.101678">
        <time>1970-01-01T00:00:00+00:00</time>
        <ele>2323.0</ele>
      </trkpt>
      <trkpt lat="46.780966" lon="11.101689">
        <time>1970-01-01T00:00:00+00:00</time>
        <ele>2328.0</ele>
      </trkpt>
      <trkpt lat="46.780913" lon="11.101706">
        <time>1970-01-01T00:00:00+00:00</time>
        <ele>2330.0</ele>
      </trkpt>
      <trkpt lat="46.780871" lon="11.101748">
        <time>1970-01-01T00:00:00+00:00</time>
        <ele>2332.0</ele>
      </trkpt>
      <trkpt lat="46.780764" lon="11.101764">
        <time>1970-01-01T00:00:00+00:00</time>
        <ele>2336.0</ele>
      </trkpt>
      <trkpt lat="46.780648" lon="11.101722">
        <time>1970-01-01T00:00:00+00:00</time>
        <ele>2342.0</ele>
      </trkpt>
      <trkpt lat="46.780597" lon="11.101674">
        <time>1970-01-01T00:00:00+00:00</time>
        <ele>2344.0</ele>
      </trkpt>
      <trkpt lat="46.780568" lon="11.101625">
        <time>1970-01-01T00:00:00+00:00</time>
        <ele>2345.0</ele>
      </trkpt>
      <trkpt lat="46.780557" lon="11.101513">
        <time>1970-01-01T00:00:00+00:00</time>
        <ele>2345.0</ele>
      </trkpt>
      <trkpt lat="46.780439" lon="11.101432">
        <time>1970-01-01T00:00:00+00:00</time>
        <ele>2352.0</ele>
      </trkpt>
      <trkpt lat="46.780382" lon="11.101469">
        <time>1970-01-01T00:00:00+00:00</time>
        <ele>2354.0</ele>
      </trkpt>
      <trkpt lat="46.780294" lon="11.101485">
        <time>1970-01-01T00:00:00+00:00</time>
        <ele>2358.0</ele>
      </trkpt>
      <trkpt lat="46.78022" lon="11.101533">
        <time>1970-01-01T00:00:00+00:00</time>
        <ele>2362.0</ele>
      </trkpt>
      <trkpt lat="46.780086" lon="11.101641">
        <time>1970-01-01T00:00:00+00:00</time>
        <ele>2372.0</ele>
      </trkpt>
      <trkpt lat="46.780048" lon="11.101715">
        <time>1970-01-01T00:00:00+00:00</time>
        <ele>2374.0</ele>
      </trkpt>
      <trkpt lat="46.779899" lon="11.101722">
        <time>1970-01-01T00:00:00+00:00</time>
        <ele>2384.0</ele>
      </trkpt>
      <trkpt lat="46.779853" lon="11.101758">
        <time>1970-01-01T00:00:00+00:00</time>
        <ele>2386.0</ele>
      </trkpt>
      <trkpt lat="46.779826" lon="11.101738">
        <time>1970-01-01T00:00:00+00:00</time>
        <ele>2387.0</ele>
      </trkpt>
      <trkpt lat="46.779752" lon="11.101808">
        <time>1970-01-01T00:00:00+00:00</time>
        <ele>2390.0</ele>
      </trkpt>
      <trkpt lat="46.779633" lon="11.10178">
        <time>1970-01-01T00:00:00+00:00</time>
        <ele>2397.0</ele>
      </trkpt>
      <trkpt lat="46.779594" lon="11.101818">
        <time>1970-01-01T00:00:00+00:00</time>
        <ele>2400.0</ele>
      </trkpt>
      <trkpt lat="46.779521" lon="11.101743">
        <time>1970-01-01T00:00:00+00:00</time>
        <ele>2405.0</ele>
      </trkpt>
      <trkpt lat="46.779495" lon="11.101674">
        <time>1970-01-01T00:00:00+00:00</time>
        <ele>2408.0</ele>
      </trkpt>
      <trkpt lat="46.779444" lon="11.101604">
        <time>1970-01-01T00:00:00+00:00</time>
        <ele>2412.0</ele>
      </trkpt>
      <trkpt lat="46.779407" lon="11.101631">
        <time>1970-01-01T00:00:00+00:00</time>
        <ele>2415.0</ele>
      </trkpt>
      <trkpt lat="46.779397" lon="11.101705">
        <time>1970-01-01T00:00:00+00:00</time>
        <ele>2415.0</ele>
      </trkpt>
      <trkpt lat="46.77937" lon="11.101674">
        <time>1970-01-01T00:00:00+00:00</time>
        <ele>2417.0</ele>
      </trkpt>
      <trkpt lat="46.779317" lon="11.101715">
        <time>1970-01-01T00:00:00+00:00</time>
        <ele>2420.0</ele>
      </trkpt>
      <trkpt lat="46.779249" lon="11.101631">
        <time>1970-01-01T00:00:00+00:00</time>
        <ele>2425.0</ele>
      </trkpt>
      <trkpt lat="46.77923" lon="11.101658">
        <time>1970-01-01T00:00:00+00:00</time>
        <ele>2426.0</ele>
      </trkpt>
      <trkpt lat="46.779197" lon="11.101582">
        <time>1970-01-01T00:00:00+00:00</time>
        <ele>2429.0</ele>
      </trkpt>
      <trkpt lat="46.77914" lon="11.101624">
        <time>1970-01-01T00:00:00+00:00</time>
        <ele>2432.0</ele>
      </trkpt>
      <trkpt lat="46.77912" lon="11.101588">
        <time>1970-01-01T00:00:00+00:00</time>
        <ele>2434.0</ele>
      </trkpt>
      <trkpt lat="46.779056" lon="11.101571">
        <time>1970-01-01T00:00:00+00:00</time>
        <ele>2439.0</ele>
      </trkpt>
      <trkpt lat="46.778948" lon="11.101432">
        <time>1970-01-01T00:00:00+00:00</time>
        <ele>2449.0</ele>
      </trkpt>
      <trkpt lat="46.778863" lon="11.101427">
        <time>1970-01-01T00:00:00+00:00</time>
        <ele>2456.0</ele>
      </trkpt>
      <trkpt lat="46.778813" lon="11.101485">
        <time>1970-01-01T00:00:00+00:00</time>
        <ele>2460.0</ele>
      </trkpt>
      <trkpt lat="46.778606" lon="11.101523">
        <time>1970-01-01T00:00:00+00:00</time>
        <ele>2472.0</ele>
      </trkpt>
      <trkpt lat="46.778533" lon="11.101454">
        <time>1970-01-01T00:00:00+00:00</time>
        <ele>2478.0</ele>
      </trkpt>
      <trkpt lat="46.778496" lon="11.101486">
        <time>1970-01-01T00:00:00+00:00</time>
        <ele>2480.0</ele>
      </trkpt>
      <trkpt lat="46.7784" lon="11.101357">
        <time>1970-01-01T00:00:00+00:00</time>
        <ele>2488.0</ele>
      </trkpt>
      <trkpt lat="46.778375" lon="11.101362">
        <time>1970-01-01T00:00:00+00:00</time>
        <ele>2491.0</ele>
      </trkpt>
      <trkpt lat="46.778323" lon="11.101218">
        <time>1970-01-01T00:00:00+00:00</time>
        <ele>2497.0</ele>
      </trkpt>
      <trkpt lat="46.778242" lon="11.101309">
        <time>1970-01-01T00:00:00+00:00</time>
        <ele>2502.0</ele>
      </trkpt>
      <trkpt lat="46.778172" lon="11.101212">
        <time>1970-01-01T00:00:00+00:00</time>
        <ele>2509.0</ele>
      </trkpt>
      <trkpt lat="46.778134" lon="11.101249">
        <time>1970-01-01T00:00:00+00:00</time>
        <ele>2512.0</ele>
      </trkpt>
      <trkpt lat="46.77811" lon="11.101228">
        <time>1970-01-01T00:00:00+00:00</time>
        <ele>2514.0</ele>
      </trkpt>
      <trkpt lat="46.778088" lon="11.101094">
        <time>1970-01-01T00:00:00+00:00</time>
        <ele>2518.0</ele>
      </trkpt>
      <trkpt lat="46.778057" lon="11.10112">
        <time>1970-01-01T00:00:00+00:00</time>
        <ele>2520.0</ele>
      </trkpt>
      <trkpt lat="46.778029" lon="11.101196">
        <time>1970-01-01T00:00:00+00:00</time>
        <ele>2521.0</ele>
      </trkpt>
      <trkpt lat="46.777992" lon="11.101244">
        <time>1970-01-01T00:00:00+00:00</time>
        <ele>2523.0</ele>
      </trkpt>
      <trkpt lat="46.777985" lon="11.101287">
        <time>1970-01-01T00:00:00+00:00</time>
        <ele>2523.0</ele>
      </trkpt>
      <trkpt lat="46.777908" lon="11.101282">
        <time>1970-01-01T00:00:00+00:00</time>
        <ele>2529.0</ele>
      </trkpt>
      <trkpt lat="46.777847" lon="11.101404">
        <time>1970-01-01T00:00:00+00:00</time>
        <ele>2533.0</ele>
      </trkpt>
      <trkpt lat="46.777759" lon="11.101501">
        <time>1970-01-01T00:00:00+00:00</time>
        <ele>2538.0</ele>
      </trkpt>
      <trkpt lat="46.77773" lon="11.10156">
        <time>1970-01-01T00:00:00+00:00</time>
        <ele>2540.0</ele>
      </trkpt>
      <trkpt lat="46.777706" lon="11.10154">
        <time>1970-01-01T00:00:00+00:00</time>
        <ele>2541.0</ele>
      </trkpt>
      <trkpt lat="46.777666" lon="11.101545">
        <time>1970-01-01T00:00:00+00:00</time>
        <ele>2544.0</ele>
      </trkpt>
      <trkpt lat="46.777607" lon="11.101636">
        <time>1970-01-01T00:00:00+00:00</time>
        <ele>2549.0</ele>
      </trkpt>
      <trkpt lat="46.777519" lon="11.101679">
        <time>1970-01-01T00:00:00+00:00</time>
        <ele>2555.0</ele>
      </trkpt>
      <trkpt lat="46.777489" lon="11.101652">
        <time>1970-01-01T00:00:00+00:00</time>
        <ele>2557.0</ele>
      </trkpt>
      <trkpt lat="46.777419" lon="11.101722">
        <time>1970-01-01T00:00:00+00:00</time>
        <ele>2562.0</ele>
      </trkpt>
      <trkpt lat="46.777412" lon="11.101808">
        <time>1970-01-01T00:00:00+00:00</time>
        <ele>2563.0</ele>
      </trkpt>
      <trkpt lat="46.777362" lon="11.101817">
        <time>1970-01-01T00:00:00+00:00</time>
        <ele>2566.0</ele>
      </trkpt>
      <trkpt lat="46.777309" lon="11.101942">
        <time>1970-01-01T00:00:00+00:00</time>
        <ele>2571.0</ele>
      </trkpt>
      <trkpt lat="46.777285" lon="11.10207">
        <time>1970-01-01T00:00:00+00:00</time>
        <ele>2573.0</ele>
      </trkpt>
      <trkpt lat="46.777265" lon="11.102006">
        <time>1970-01-01T00:00:00+00:00</time>
        <ele>2573.0</ele>
      </trkpt>
      <trkpt lat="46.777212" lon="11.102059">
        <time>1970-01-01T00:00:00+00:00</time>
        <ele>2575.0</ele>
      </trkpt>
      <trkpt lat="46.77716" lon="11.102285">
        <time>1970-01-01T00:00:00+00:00</time>
        <ele>2582.0</ele>
      </trkpt>
      <trkpt lat="46.777116" lon="11.102332">
        <time>1970-01-01T00:00:00+00:00</time>
        <ele>2585.0</ele>
      </trkpt>
      <trkpt lat="46.777021" lon="11.102386">
        <time>1970-01-01T00:00:00+00:00</time>
        <ele>2591.0</ele>
      </trkpt>
      <trkpt lat="46.776993" lon="11.102435">
        <time>1970-01-01T00:00:00+00:00</time>
        <ele>2594.0</ele>
      </trkpt>
      <trkpt lat="46.776964" lon="11.10243">
        <time>1970-01-01T00:00:00+00:00</time>
        <ele>2595.0</ele>
      </trkpt>
      <trkpt lat="46.776916" lon="11.102489">
        <time>1970-01-01T00:00:00+00:00</time>
        <ele>2599.0</ele>
      </trkpt>
      <trkpt lat="46.776866" lon="11.102493">
        <time>1970-01-01T00:00:00+00:00</time>
        <ele>2600.0</ele>
      </trkpt>
      <trkpt lat="46.776793" lon="11.102541">
        <time>1970-01-01T00:00:00+00:00</time>
        <ele>2604.0</ele>
      </trkpt>
      <trkpt lat="46.776633" lon="11.10273">
        <time>1970-01-01T00:00:00+00:00</time>
        <ele>2610.0</ele>
      </trkpt>
      <trkpt lat="46.776627" lon="11.102912">
        <time>1970-01-01T00:00:00+00:00</time>
        <ele>2615.0</ele>
      </trkpt>
      <trkpt lat="46.776567" lon="11.103004">
        <time>1970-01-01T00:00:00+00:00</time>
        <ele>2616.0</ele>
      </trkpt>
      <trkpt lat="46.776411" lon="11.103148">
        <time>1970-01-01T00:00:00+00:00</time>
        <ele>2619.0</ele>
      </trkpt>
      <trkpt lat="46.776323" lon="11.103298">
        <time>1970-01-01T00:00:00+00:00</time>
        <ele>2623.0</ele>
      </trkpt>
      <trkpt lat="46.776267" lon="11.103341">
        <time>1970-01-01T00:00:00+00:00</time>
        <ele>2625.0</ele>
      </trkpt>
      <trkpt lat="46.776132" lon="11.103325">
        <time>1970-01-01T00:00:00+00:00</time>
        <ele>2627.0</ele>
      </trkpt>
      <trkpt lat="46.775957" lon="11.103235">
        <time>1970-01-01T00:00:00+00:00</time>
        <ele>2629.0</ele>
      </trkpt>
      <trkpt lat="46.775858" lon="11.103267">
        <time>1970-01-01T00:00:00+00:00</time>
        <ele>2633.0</ele>
      </trkpt>
      <trkpt lat="46.775799" lon="11.103251">
        <time>1970-01-01T00:00:00+00:00</time>
        <ele>2635.0</ele>
      </trkpt>
      <trkpt lat="46.775656" lon="11.103321">
        <time>1970-01-01T00:00:00+00:00</time>
        <ele>2640.0</ele>
      </trkpt>
      <trkpt lat="46.775542" lon="11.103304">
        <time>1970-01-01T00:00:00+00:00</time>
        <ele>2642.0</ele>
      </trkpt>
      <trkpt lat="46.775404" lon="11.10333">
        <time>1970-01-01T00:00:00+00:00</time>
        <ele>2646.0</ele>
      </trkpt>
      <trkpt lat="46.775278" lon="11.103385">
        <time>1970-01-01T00:00:00+00:00</time>
        <ele>2652.0</ele>
      </trkpt>
      <trkpt lat="46.775261" lon="11.103448">
        <time>1970-01-01T00:00:00+00:00</time>
        <ele>2654.0</ele>
      </trkpt>
      <trkpt lat="46.775215" lon="11.103524">
        <time>1970-01-01T00:00:00+00:00</time>
        <ele>2657.0</ele>
      </trkpt>
      <trkpt lat="46.775151" lon="11.103534">
        <time>1970-01-01T00:00:00+00:00</time>
        <ele>2660.0</ele>
      </trkpt>
      <trkpt lat="46.775121" lon="11.103513">
        <time>1970-01-01T00:00:00+00:00</time>
        <ele>2661.0</ele>
      </trkpt>
      <trkpt lat="46.775086" lon="11.103578">
        <time>1970-01-01T00:00:00+00:00</time>
        <ele>2664.0</ele>
      </trkpt>
      <trkpt lat="46.77505" lon="11.103562">
        <time>1970-01-01T00:00:00+00:00</time>
        <ele>2665.0</ele>
      </trkpt>
      <trkpt lat="46.77498" lon="11.103578">
        <time>1970-01-01T00:00:00+00:00</time>
        <ele>2667.0</ele>
      </trkpt>
      <trkpt lat="46.774914" lon="11.103664">
        <time>1970-01-01T00:00:00+00:00</time>
        <ele>2672.0</ele>
      </trkpt>
      <trkpt lat="46.774851" lon="11.103605">
        <time>1970-01-01T00:00:00+00:00</time>
        <ele>2674.0</ele>
      </trkpt>
      <trkpt lat="46.774782" lon="11.103648">
        <time>1970-01-01T00:00:00+00:00</time>
        <ele>2678.0</ele>
      </trkpt>
      <trkpt lat="46.774662" lon="11.103652">
        <time>1970-01-01T00:00:00+00:00</time>
        <ele>2684.0</ele>
      </trkpt>
      <trkpt lat="46.774607" lon="11.103738">
        <time>1970-01-01T00:00:00+00:00</time>
        <ele>2690.0</ele>
      </trkpt>
      <trkpt lat="46.774644" lon="11.103867">
        <time>1970-01-01T00:00:00+00:00</time>
        <ele>2690.0</ele>
      </trkpt>
      <trkpt lat="46.774557" lon="11.104013">
        <time>1970-01-01T00:00:00+00:00</time>
        <ele>2699.0</ele>
      </trkpt>
      <trkpt lat="46.774473" lon="11.104039">
        <time>1970-01-01T00:00:00+00:00</time>
        <ele>2703.0</ele>
      </trkpt>
      <trkpt lat="46.774433" lon="11.104093">
        <time>1970-01-01T00:00:00+00:00</time>
        <ele>2705.0</ele>
      </trkpt>
      <trkpt lat="46.774422" lon="11.10405">
        <time>1970-01-01T00:00:00+00:00</time>
        <ele>2705.0</ele>
      </trkpt>
      <trkpt lat="46.774433" lon="11.103986">
        <time>1970-01-01T00:00:00+00:00</time>
        <ele>2704.0</ele>
      </trkpt>
      <trkpt lat="46.774392" lon="11.103964">
        <time>1970-01-01T00:00:00+00:00</time>
        <ele>2705.0</ele>
      </trkpt>
      <trkpt lat="46.774361" lon="11.103979">
        <time>1970-01-01T00:00:00+00:00</time>
        <ele>2707.0</ele>
      </trkpt>
      <trkpt lat="46.774322" lon="11.103943">
        <time>1970-01-01T00:00:00+00:00</time>
        <ele>2708.0</ele>
      </trkpt>
      <trkpt lat="46.774236" lon="11.103985">
        <time>1970-01-01T00:00:00+00:00</time>
        <ele>2714.0</ele>
      </trkpt>
      <trkpt lat="46.774227" lon="11.103916">
        <time>1970-01-01T00:00:00+00:00</time>
        <ele>2712.0</ele>
      </trkpt>
      <trkpt lat="46.774131" lon="11.103857">
        <time>1970-01-01T00:00:00+00:00</time>
        <ele>2716.0</ele>
      </trkpt>
      <trkpt lat="46.774072" lon="11.103868">
        <time>1970-01-01T00:00:00+00:00</time>
        <ele>2719.0</ele>
      </trkpt>
      <trkpt lat="46.774021" lon="11.103696">
        <time>1970-01-01T00:00:00+00:00</time>
        <ele>2714.0</ele>
      </trkpt>
      <trkpt lat="46.773981" lon="11.103691">
        <time>1970-01-01T00:00:00+00:00</time>
        <ele>2715.0</ele>
      </trkpt>
      <trkpt lat="46.773944" lon="11.103626">
        <time>1970-01-01T00:00:00+00:00</time>
        <ele>2713.0</ele>
      </trkpt>
      <trkpt lat="46.773716" lon="11.103664">
        <time>1970-01-01T00:00:00+00:00</time>
        <ele>2717.0</ele>
      </trkpt>
      <trkpt lat="46.77369" lon="11.103626">
        <time>1970-01-01T00:00:00+00:00</time>
        <ele>2715.0</ele>
      </trkpt>
      <trkpt lat="46.773659" lon="11.103647">
        <time>1970-01-01T00:00:00+00:00</time>
        <ele>2717.0</ele>
      </trkpt>
      <trkpt lat="46.773646" lon="11.103728">
        <time>1970-01-01T00:00:00+00:00</time>
        <ele>2722.0</ele>
      </trkpt>
      <trkpt lat="46.773496" lon="11.103567">
        <time>1970-01-01T00:00:00+00:00</time>
        <ele>2710.0</ele>
      </trkpt>
      <trkpt lat="46.773391" lon="11.103529">
        <time>1970-01-01T00:00:00+00:00</time>
        <ele>2705.0</ele>
      </trkpt>
      <trkpt lat="46.773294" lon="11.103567">
        <time>1970-01-01T00:00:00+00:00</time>
        <ele>2706.0</ele>
      </trkpt>
      <trkpt lat="46.773306" lon="11.103641">
        <time>1970-01-01T00:00:00+00:00</time>
        <ele>2712.0</ele>
      </trkpt>
      <trkpt lat="46.773185" lon="11.10362">
        <time>1970-01-01T00:00:00+00:00</time>
        <ele>2708.0</ele>
      </trkpt>
      <trkpt lat="46.773154" lon="11.103658">
        <time>1970-01-01T00:00:00+00:00</time>
        <ele>2711.0</ele>
      </trkpt>
      <trkpt lat="46.773114" lon="11.1039">
        <time>1970-01-01T00:00:00+00:00</time>
        <ele>2731.0</ele>
      </trkpt>
      <trkpt lat="46.773143" lon="11.104045">
        <time>1970-01-01T00:00:00+00:00</time>
        <ele>2743.0</ele>
      </trkpt>
      <trkpt lat="46.773128" lon="11.104104">
        <time>1970-01-01T00:00:00+00:00</time>
        <ele>2745.0</ele>
      </trkpt>
      <trkpt lat="46.773081" lon="11.104077">
        <time>1970-01-01T00:00:00+00:00</time>
        <ele>2743.0</ele>
      </trkpt>
      <trkpt lat="46.773038" lon="11.104167">
        <time>1970-01-01T00:00:00+00:00</time>
        <ele>2745.0</ele>
      </trkpt>
      <trkpt lat="46.773103" lon="11.104291">
        <time>1970-01-01T00:00:00+00:00</time>
        <ele>2750.0</ele>
      </trkpt>
      <trkpt lat="46.773073" lon="11.104388">
        <time>1970-01-01T00:00:00+00:00</time>
        <ele>2750.0</ele>
      </trkpt>
      <trkpt lat="46.773012" lon="11.104403">
        <time>1970-01-01T00:00:00+00:00</time>
        <ele>2749.0</ele>
      </trkpt>
      <trkpt lat="46.772994" lon="11.104473">
        <time>1970-01-01T00:00:00+00:00</time>
        <ele>2750.0</ele>
      </trkpt>
      <trkpt lat="46.773011" lon="11.104533">
        <time>1970-01-01T00:00:00+00:00</time>
        <ele>2751.0</ele>
      </trkpt>
      <trkpt lat="46.772992" lon="11.10456">
        <time>1970-01-01T00:00:00+00:00</time>
        <ele>2751.0</ele>
      </trkpt>
      <trkpt lat="46.772882" lon="11.104522">
        <time>1970-01-01T00:00:00+00:00</time>
        <ele>2749.0</ele>
      </trkpt>
      <trkpt lat="46.772816" lon="11.104629">
        <time>1970-01-01T00:00:00+00:00</time>
        <ele>2747.0</ele>
      </trkpt>
      <trkpt lat="46.77275" lon="11.104538">
        <time>1970-01-01T00:00:00+00:00</time>
        <ele>2745.0</ele>
      </trkpt>
      <trkpt lat="46.772724" lon="11.104587">
        <time>1970-01-01T00:00:00+00:00</time>
        <ele>2744.0</ele>
      </trkpt>
      <trkpt lat="46.772726" lon="11.104741">
        <time>1970-01-01T00:00:00+00:00</time>
        <ele>2743.0</ele>
      </trkpt>
      <trkpt lat="46.772658" lon="11.104699">
        <time>1970-01-01T00:00:00+00:00</time>
        <ele>2742.0</ele>
      </trkpt>
      <trkpt lat="46.772645" lon="11.104741">
        <time>1970-01-01T00:00:00+00:00</time>
        <ele>2741.0</ele>
      </trkpt>
      <trkpt lat="46.77256" lon="11.104703">
        <time>1970-01-01T00:00:00+00:00</time>
        <ele>2739.0</ele>
      </trkpt>
      <trkpt lat="46.772515" lon="11.104651">
        <time>1970-01-01T00:00:00+00:00</time>
        <ele>2738.0</ele>
      </trkpt>
      <trkpt lat="46.772469" lon="11.104639">
        <time>1970-01-01T00:00:00+00:00</time>
        <ele>2736.0</ele>
      </trkpt>
      <trkpt lat="46.77243" lon="11.104726">
        <time>1970-01-01T00:00:00+00:00</time>
        <ele>2734.0</ele>
      </trkpt>
      <trkpt lat="46.772425" lon="11.104843">
        <time>1970-01-01T00:00:00+00:00</time>
        <ele>2733.0</ele>
      </trkpt>
      <trkpt lat="46.772425" lon="11.104843">
        <time>1970-01-01T00:00:00+00:00</time>
        <ele>2733.0</ele>
      </trkpt>
      <trkpt lat="46.77243" lon="11.104726">
        <time>1970-01-01T00:00:00+00:00</time>
        <ele>2734.0</ele>
      </trkpt>
      <trkpt lat="46.772469" lon="11.104639">
        <time>1970-01-01T00:00:00+00:00</time>
        <ele>2736.0</ele>
      </trkpt>
      <trkpt lat="46.772515" lon="11.104651">
        <time>1970-01-01T00:00:00+00:00</time>
        <ele>2738.0</ele>
      </trkpt>
      <trkpt lat="46.77256" lon="11.104703">
        <time>1970-01-01T00:00:00+00:00</time>
        <ele>2739.0</ele>
      </trkpt>
      <trkpt lat="46.772645" lon="11.104741">
        <time>1970-01-01T00:00:00+00:00</time>
        <ele>2741.0</ele>
      </trkpt>
      <trkpt lat="46.772658" lon="11.104699">
        <time>1970-01-01T00:00:00+00:00</time>
        <ele>2742.0</ele>
      </trkpt>
      <trkpt lat="46.772726" lon="11.104741">
        <time>1970-01-01T00:00:00+00:00</time>
        <ele>2743.0</ele>
      </trkpt>
      <trkpt lat="46.772724" lon="11.104587">
        <time>1970-01-01T00:00:00+00:00</time>
        <ele>2744.0</ele>
      </trkpt>
      <trkpt lat="46.77275" lon="11.104538">
        <time>1970-01-01T00:00:00+00:00</time>
        <ele>2745.0</ele>
      </trkpt>
      <trkpt lat="46.772816" lon="11.104629">
        <time>1970-01-01T00:00:00+00:00</time>
        <ele>2747.0</ele>
      </trkpt>
      <trkpt lat="46.772882" lon="11.104522">
        <time>1970-01-01T00:00:00+00:00</time>
        <ele>2749.0</ele>
      </trkpt>
      <trkpt lat="46.772992" lon="11.10456">
        <time>1970-01-01T00:00:00+00:00</time>
        <ele>2751.0</ele>
      </trkpt>
      <trkpt lat="46.773011" lon="11.104533">
        <time>1970-01-01T00:00:00+00:00</time>
        <ele>2751.0</ele>
      </trkpt>
      <trkpt lat="46.772994" lon="11.104473">
        <time>1970-01-01T00:00:00+00:00</time>
        <ele>2750.0</ele>
      </trkpt>
      <trkpt lat="46.773012" lon="11.104403">
        <time>1970-01-01T00:00:00+00:00</time>
        <ele>2749.0</ele>
      </trkpt>
      <trkpt lat="46.773073" lon="11.104388">
        <time>1970-01-01T00:00:00+00:00</time>
        <ele>2750.0</ele>
      </trkpt>
      <trkpt lat="46.773103" lon="11.104291">
        <time>1970-01-01T00:00:00+00:00</time>
        <ele>2750.0</ele>
      </trkpt>
      <trkpt lat="46.773038" lon="11.104167">
        <time>1970-01-01T00:00:00+00:00</time>
        <ele>2745.0</ele>
      </trkpt>
      <trkpt lat="46.773081" lon="11.104077">
        <time>1970-01-01T00:00:00+00:00</time>
        <ele>2743.0</ele>
      </trkpt>
      <trkpt lat="46.773128" lon="11.104104">
        <time>1970-01-01T00:00:00+00:00</time>
        <ele>2745.0</ele>
      </trkpt>
      <trkpt lat="46.773143" lon="11.104045">
        <time>1970-01-01T00:00:00+00:00</time>
        <ele>2743.0</ele>
      </trkpt>
      <trkpt lat="46.773114" lon="11.1039">
        <time>1970-01-01T00:00:00+00:00</time>
        <ele>2731.0</ele>
      </trkpt>
      <trkpt lat="46.773154" lon="11.103658">
        <time>1970-01-01T00:00:00+00:00</time>
        <ele>2711.0</ele>
      </trkpt>
      <trkpt lat="46.773185" lon="11.10362">
        <time>1970-01-01T00:00:00+00:00</time>
        <ele>2708.0</ele>
      </trkpt>
      <trkpt lat="46.773306" lon="11.103641">
        <time>1970-01-01T00:00:00+00:00</time>
        <ele>2712.0</ele>
      </trkpt>
      <trkpt lat="46.773294" lon="11.103567">
        <time>1970-01-01T00:00:00+00:00</time>
        <ele>2706.0</ele>
      </trkpt>
      <trkpt lat="46.773391" lon="11.103529">
        <time>1970-01-01T00:00:00+00:00</time>
        <ele>2705.0</ele>
      </trkpt>
      <trkpt lat="46.773496" lon="11.103567">
        <time>1970-01-01T00:00:00+00:00</time>
        <ele>2710.0</ele>
      </trkpt>
      <trkpt lat="46.773646" lon="11.103728">
        <time>1970-01-01T00:00:00+00:00</time>
        <ele>2722.0</ele>
      </trkpt>
      <trkpt lat="46.773659" lon="11.103647">
        <time>1970-01-01T00:00:00+00:00</time>
        <ele>2717.0</ele>
      </trkpt>
      <trkpt lat="46.77369" lon="11.103626">
        <time>1970-01-01T00:00:00+00:00</time>
        <ele>2715.0</ele>
      </trkpt>
      <trkpt lat="46.773716" lon="11.103664">
        <time>1970-01-01T00:00:00+00:00</time>
        <ele>2717.0</ele>
      </trkpt>
      <trkpt lat="46.773944" lon="11.103626">
        <time>1970-01-01T00:00:00+00:00</time>
        <ele>2713.0</ele>
      </trkpt>
      <trkpt lat="46.773981" lon="11.103691">
        <time>1970-01-01T00:00:00+00:00</time>
        <ele>2715.0</ele>
      </trkpt>
      <trkpt lat="46.774021" lon="11.103696">
        <time>1970-01-01T00:00:00+00:00</time>
        <ele>2714.0</ele>
      </trkpt>
      <trkpt lat="46.774072" lon="11.103868">
        <time>1970-01-01T00:00:00+00:00</time>
        <ele>2719.0</ele>
      </trkpt>
      <trkpt lat="46.774131" lon="11.103857">
        <time>1970-01-01T00:00:00+00:00</time>
        <ele>2716.0</ele>
      </trkpt>
      <trkpt lat="46.774227" lon="11.103916">
        <time>1970-01-01T00:00:00+00:00</time>
        <ele>2712.0</ele>
      </trkpt>
      <trkpt lat="46.774236" lon="11.103985">
        <time>1970-01-01T00:00:00+00:00</time>
        <ele>2714.0</ele>
      </trkpt>
      <trkpt lat="46.774322" lon="11.103943">
        <time>1970-01-01T00:00:00+00:00</time>
        <ele>2708.0</ele>
      </trkpt>
      <trkpt lat="46.774361" lon="11.103979">
        <time>1970-01-01T00:00:00+00:00</time>
        <ele>2707.0</ele>
      </trkpt>
      <trkpt lat="46.774392" lon="11.103964">
        <time>1970-01-01T00:00:00+00:00</time>
        <ele>2705.0</ele>
      </trkpt>
      <trkpt lat="46.774433" lon="11.103986">
        <time>1970-01-01T00:00:00+00:00</time>
        <ele>2704.0</ele>
      </trkpt>
      <trkpt lat="46.774422" lon="11.10405">
        <time>1970-01-01T00:00:00+00:00</time>
        <ele>2705.0</ele>
      </trkpt>
      <trkpt lat="46.774433" lon="11.104093">
        <time>1970-01-01T00:00:00+00:00</time>
        <ele>2705.0</ele>
      </trkpt>
      <trkpt lat="46.774473" lon="11.104039">
        <time>1970-01-01T00:00:00+00:00</time>
        <ele>2703.0</ele>
      </trkpt>
      <trkpt lat="46.774557" lon="11.104013">
        <time>1970-01-01T00:00:00+00:00</time>
        <ele>2699.0</ele>
      </trkpt>
      <trkpt lat="46.774644" lon="11.103867">
        <time>1970-01-01T00:00:00+00:00</time>
        <ele>2690.0</ele>
      </trkpt>
      <trkpt lat="46.774607" lon="11.103738">
        <time>1970-01-01T00:00:00+00:00</time>
        <ele>2690.0</ele>
      </trkpt>
      <trkpt lat="46.774662" lon="11.103652">
        <time>1970-01-01T00:00:00+00:00</time>
        <ele>2684.0</ele>
      </trkpt>
      <trkpt lat="46.774782" lon="11.103648">
        <time>1970-01-01T00:00:00+00:00</time>
        <ele>2678.0</ele>
      </trkpt>
      <trkpt lat="46.774851" lon="11.103605">
        <time>1970-01-01T00:00:00+00:00</time>
        <ele>2674.0</ele>
      </trkpt>
      <trkpt lat="46.774914" lon="11.103664">
        <time>1970-01-01T00:00:00+00:00</time>
        <ele>2672.0</ele>
      </trkpt>
      <trkpt lat="46.77498" lon="11.103578">
        <time>1970-01-01T00:00:00+00:00</time>
        <ele>2667.0</ele>
      </trkpt>
      <trkpt lat="46.77505" lon="11.103562">
        <time>1970-01-01T00:00:00+00:00</time>
        <ele>2665.0</ele>
      </trkpt>
      <trkpt lat="46.775086" lon="11.103578">
        <time>1970-01-01T00:00:00+00:00</time>
        <ele>2664.0</ele>
      </trkpt>
      <trkpt lat="46.775121" lon="11.103513">
        <time>1970-01-01T00:00:00+00:00</time>
        <ele>2661.0</ele>
      </trkpt>
      <trkpt lat="46.775151" lon="11.103534">
        <time>1970-01-01T00:00:00+00:00</time>
        <ele>2660.0</ele>
      </trkpt>
      <trkpt lat="46.775215" lon="11.103524">
        <time>1970-01-01T00:00:00+00:00</time>
        <ele>2657.0</ele>
      </trkpt>
      <trkpt lat="46.775261" lon="11.103448">
        <time>1970-01-01T00:00:00+00:00</time>
        <ele>2654.0</ele>
      </trkpt>
      <trkpt lat="46.775278" lon="11.103385">
        <time>1970-01-01T00:00:00+00:00</time>
        <ele>2652.0</ele>
      </trkpt>
      <trkpt lat="46.775404" lon="11.10333">
        <time>1970-01-01T00:00:00+00:00</time>
        <ele>2646.0</ele>
      </trkpt>
      <trkpt lat="46.775542" lon="11.103304">
        <time>1970-01-01T00:00:00+00:00</time>
        <ele>2642.0</ele>
      </trkpt>
      <trkpt lat="46.775656" lon="11.103321">
        <time>1970-01-01T00:00:00+00:00</time>
        <ele>2640.0</ele>
      </trkpt>
      <trkpt lat="46.775799" lon="11.103251">
        <time>1970-01-01T00:00:00+00:00</time>
        <ele>2635.0</ele>
      </trkpt>
      <trkpt lat="46.775858" lon="11.103267">
        <time>1970-01-01T00:00:00+00:00</time>
        <ele>2633.0</ele>
      </trkpt>
      <trkpt lat="46.775957" lon="11.103235">
        <time>1970-01-01T00:00:00+00:00</time>
        <ele>2629.0</ele>
      </trkpt>
      <trkpt lat="46.776132" lon="11.103325">
        <time>1970-01-01T00:00:00+00:00</time>
        <ele>2627.0</ele>
      </trkpt>
      <trkpt lat="46.776267" lon="11.103341">
        <time>1970-01-01T00:00:00+00:00</time>
        <ele>2625.0</ele>
      </trkpt>
      <trkpt lat="46.776323" lon="11.103298">
        <time>1970-01-01T00:00:00+00:00</time>
        <ele>2623.0</ele>
      </trkpt>
      <trkpt lat="46.776411" lon="11.103148">
        <time>1970-01-01T00:00:00+00:00</time>
        <ele>2619.0</ele>
      </trkpt>
      <trkpt lat="46.776567" lon="11.103004">
        <time>1970-01-01T00:00:00+00:00</time>
        <ele>2616.0</ele>
      </trkpt>
      <trkpt lat="46.776627" lon="11.102912">
        <time>1970-01-01T00:00:00+00:00</time>
        <ele>2615.0</ele>
      </trkpt>
      <trkpt lat="46.776633" lon="11.10273">
        <time>1970-01-01T00:00:00+00:00</time>
        <ele>2610.0</ele>
      </trkpt>
      <trkpt lat="46.776793" lon="11.102541">
        <time>1970-01-01T00:00:00+00:00</time>
        <ele>2604.0</ele>
      </trkpt>
      <trkpt lat="46.776866" lon="11.102493">
        <time>1970-01-01T00:00:00+00:00</time>
        <ele>2600.0</ele>
      </trkpt>
      <trkpt lat="46.776916" lon="11.102489">
        <time>1970-01-01T00:00:00+00:00</time>
        <ele>2599.0</ele>
      </trkpt>
      <trkpt lat="46.776964" lon="11.10243">
        <time>1970-01-01T00:00:00+00:00</time>
        <ele>2595.0</ele>
      </trkpt>
      <trkpt lat="46.776993" lon="11.102435">
        <time>1970-01-01T00:00:00+00:00</time>
        <ele>2594.0</ele>
      </trkpt>
      <trkpt lat="46.777021" lon="11.102386">
        <time>1970-01-01T00:00:00+00:00</time>
        <ele>2591.0</ele>
      </trkpt>
      <trkpt lat="46.777116" lon="11.102332">
        <time>1970-01-01T00:00:00+00:00</time>
        <ele>2585.0</ele>
      </trkpt>
      <trkpt lat="46.77716" lon="11.102285">
        <time>1970-01-01T00:00:00+00:00</time>
        <ele>2582.0</ele>
      </trkpt>
      <trkpt lat="46.777212" lon="11.102059">
        <time>1970-01-01T00:00:00+00:00</time>
        <ele>2575.0</ele>
      </trkpt>
      <trkpt lat="46.777265" lon="11.102006">
        <time>1970-01-01T00:00:00+00:00</time>
        <ele>2573.0</ele>
      </trkpt>
      <trkpt lat="46.777285" lon="11.10207">
        <time>1970-01-01T00:00:00+00:00</time>
        <ele>2573.0</ele>
      </trkpt>
      <trkpt lat="46.777309" lon="11.101942">
        <time>1970-01-01T00:00:00+00:00</time>
        <ele>2571.0</ele>
      </trkpt>
      <trkpt lat="46.777362" lon="11.101817">
        <time>1970-01-01T00:00:00+00:00</time>
        <ele>2566.0</ele>
      </trkpt>
      <trkpt lat="46.777412" lon="11.101808">
        <time>1970-01-01T00:00:00+00:00</time>
        <ele>2563.0</ele>
      </trkpt>
      <trkpt lat="46.777419" lon="11.101722">
        <time>1970-01-01T00:00:00+00:00</time>
        <ele>2562.0</ele>
      </trkpt>
      <trkpt lat="46.777489" lon="11.101652">
        <time>1970-01-01T00:00:00+00:00</time>
        <ele>2557.0</ele>
      </trkpt>
      <trkpt lat="46.777519" lon="11.101679">
        <time>1970-01-01T00:00:00+00:00</time>
        <ele>2555.0</ele>
      </trkpt>
      <trkpt lat="46.777607" lon="11.101636">
        <time>1970-01-01T00:00:00+00:00</time>
        <ele>2549.0</ele>
      </trkpt>
      <trkpt lat="46.777666" lon="11.101545">
        <time>1970-01-01T00:00:00+00:00</time>
        <ele>2544.0</ele>
      </trkpt>
      <trkpt lat="46.777706" lon="11.10154">
        <time>1970-01-01T00:00:00+00:00</time>
        <ele>2541.0</ele>
      </trkpt>
      <trkpt lat="46.77773" lon="11.10156">
        <time>1970-01-01T00:00:00+00:00</time>
        <ele>2540.0</ele>
      </trkpt>
      <trkpt lat="46.777759" lon="11.101501">
        <time>1970-01-01T00:00:00+00:00</time>
        <ele>2538.0</ele>
      </trkpt>
      <trkpt lat="46.777847" lon="11.101404">
        <time>1970-01-01T00:00:00+00:00</time>
        <ele>2533.0</ele>
      </trkpt>
      <trkpt lat="46.777908" lon="11.101282">
        <time>1970-01-01T00:00:00+00:00</time>
        <ele>2529.0</ele>
      </trkpt>
      <trkpt lat="46.777985" lon="11.101287">
        <time>1970-01-01T00:00:00+00:00</time>
        <ele>2523.0</ele>
      </trkpt>
      <trkpt lat="46.777992" lon="11.101244">
        <time>1970-01-01T00:00:00+00:00</time>
        <ele>2523.0</ele>
      </trkpt>
      <trkpt lat="46.778029" lon="11.101196">
        <time>1970-01-01T00:00:00+00:00</time>
        <ele>2521.0</ele>
      </trkpt>
      <trkpt lat="46.778057" lon="11.10112">
        <time>1970-01-01T00:00:00+00:00</time>
        <ele>2520.0</ele>
      </trkpt>
      <trkpt lat="46.778088" lon="11.101094">
        <time>1970-01-01T00:00:00+00:00</time>
        <ele>2518.0</ele>
      </trkpt>
      <trkpt lat="46.77811" lon="11.101228">
        <time>1970-01-01T00:00:00+00:00</time>
        <ele>2514.0</ele>
      </trkpt>
      <trkpt lat="46.778134" lon="11.101249">
        <time>1970-01-01T00:00:00+00:00</time>
        <ele>2512.0</ele>
      </trkpt>
      <trkpt lat="46.778172" lon="11.101212">
        <time>1970-01-01T00:00:00+00:00</time>
        <ele>2509.0</ele>
      </trkpt>
      <trkpt lat="46.778242" lon="11.101309">
        <time>1970-01-01T00:00:00+00:00</time>
        <ele>2502.0</ele>
      </trkpt>
      <trkpt lat="46.778323" lon="11.101218">
        <time>1970-01-01T00:00:00+00:00</time>
        <ele>2497.0</ele>
      </trkpt>
      <trkpt lat="46.778375" lon="11.101362">
        <time>1970-01-01T00:00:00+00:00</time>
        <ele>2491.0</ele>
      </trkpt>
      <trkpt lat="46.7784" lon="11.101357">
        <time>1970-01-01T00:00:00+00:00</time>
        <ele>2488.0</ele>
      </trkpt>
      <trkpt lat="46.778496" lon="11.101486">
        <time>1970-01-01T00:00:00+00:00</time>
        <ele>2480.0</ele>
      </trkpt>
      <trkpt lat="46.778533" lon="11.101454">
        <time>1970-01-01T00:00:00+00:00</time>
        <ele>2478.0</ele>
      </trkpt>
      <trkpt lat="46.778606" lon="11.101523">
        <time>1970-01-01T00:00:00+00:00</time>
        <ele>2472.0</ele>
      </trkpt>
      <trkpt lat="46.778813" lon="11.101485">
        <time>1970-01-01T00:00:00+00:00</time>
        <ele>2460.0</ele>
      </trkpt>
      <trkpt lat="46.778863" lon="11.101427">
        <time>1970-01-01T00:00:00+00:00</time>
        <ele>2456.0</ele>
      </trkpt>
      <trkpt lat="46.778948" lon="11.101432">
        <time>1970-01-01T00:00:00+00:00</time>
        <ele>2449.0</ele>
      </trkpt>
      <trkpt lat="46.779056" lon="11.101571">
        <time>1970-01-01T00:00:00+00:00</time>
        <ele>2439.0</ele>
      </trkpt>
      <trkpt lat="46.77912" lon="11.101588">
        <time>1970-01-01T00:00:00+00:00</time>
        <ele>2434.0</ele>
      </trkpt>
      <trkpt lat="46.77914" lon="11.101624">
        <time>1970-01-01T00:00:00+00:00</time>
        <ele>2432.0</ele>
      </trkpt>
      <trkpt lat="46.779197" lon="11.101582">
        <time>1970-01-01T00:00:00+00:00</time>
        <ele>2429.0</ele>
      </trkpt>
      <trkpt lat="46.77923" lon="11.101658">
        <time>1970-01-01T00:00:00+00:00</time>
        <ele>2426.0</ele>
      </trkpt>
      <trkpt lat="46.779249" lon="11.101631">
        <time>1970-01-01T00:00:00+00:00</time>
        <ele>2425.0</ele>
      </trkpt>
      <trkpt lat="46.779317" lon="11.101715">
        <time>1970-01-01T00:00:00+00:00</time>
        <ele>2420.0</ele>
      </trkpt>
      <trkpt lat="46.77937" lon="11.101674">
        <time>1970-01-01T00:00:00+00:00</time>
        <ele>2417.0</ele>
      </trkpt>
      <trkpt lat="46.779397" lon="11.101705">
        <time>1970-01-01T00:00:00+00:00</time>
        <ele>2415.0</ele>
      </trkpt>
      <trkpt lat="46.779407" lon="11.101631">
        <time>1970-01-01T00:00:00+00:00</time>
        <ele>2415.0</ele>
      </trkpt>
      <trkpt lat="46.779444" lon="11.101604">
        <time>1970-01-01T00:00:00+00:00</time>
        <ele>2412.0</ele>
      </trkpt>
      <trkpt lat="46.779495" lon="11.101674">
        <time>1970-01-01T00:00:00+00:00</time>
        <ele>2408.0</ele>
      </trkpt>
      <trkpt lat="46.779521" lon="11.101743">
        <time>1970-01-01T00:00:00+00:00</time>
        <ele>2405.0</ele>
      </trkpt>
      <trkpt lat="46.779594" lon="11.101818">
        <time>1970-01-01T00:00:00+00:00</time>
        <ele>2400.0</ele>
      </trkpt>
      <trkpt lat="46.779633" lon="11.10178">
        <time>1970-01-01T00:00:00+00:00</time>
        <ele>2397.0</ele>
      </trkpt>
      <trkpt lat="46.779752" lon="11.101808">
        <time>1970-01-01T00:00:00+00:00</time>
        <ele>2390.0</ele>
      </trkpt>
      <trkpt lat="46.779826" lon="11.101738">
        <time>1970-01-01T00:00:00+00:00</time>
        <ele>2387.0</ele>
      </trkpt>
      <trkpt lat="46.779853" lon="11.101758">
        <time>1970-01-01T00:00:00+00:00</time>
        <ele>2386.0</ele>
      </trkpt>
      <trkpt lat="46.779899" lon="11.101722">
        <time>1970-01-01T00:00:00+00:00</time>
        <ele>2384.0</ele>
      </trkpt>
      <trkpt lat="46.780048" lon="11.101715">
        <time>1970-01-01T00:00:00+00:00</time>
        <ele>2374.0</ele>
      </trkpt>
      <trkpt lat="46.780086" lon="11.101641">
        <time>1970-01-01T00:00:00+00:00</time>
        <ele>2372.0</ele>
      </trkpt>
      <trkpt lat="46.78022" lon="11.101533">
        <time>1970-01-01T00:00:00+00:00</time>
        <ele>2362.0</ele>
      </trkpt>
      <trkpt lat="46.780294" lon="11.101485">
        <time>1970-01-01T00:00:00+00:00</time>
        <ele>2358.0</ele>
      </trkpt>
      <trkpt lat="46.780382" lon="11.101469">
        <time>1970-01-01T00:00:00+00:00</time>
        <ele>2354.0</ele>
      </trkpt>
      <trkpt lat="46.780439" lon="11.101432">
        <time>1970-01-01T00:00:00+00:00</time>
        <ele>2352.0</ele>
      </trkpt>
      <trkpt lat="46.780557" lon="11.101513">
        <time>1970-01-01T00:00:00+00:00</time>
        <ele>2345.0</ele>
      </trkpt>
      <trkpt lat="46.780568" lon="11.101625">
        <time>1970-01-01T00:00:00+00:00</time>
        <ele>2345.0</ele>
      </trkpt>
      <trkpt lat="46.780597" lon="11.101674">
        <time>1970-01-01T00:00:00+00:00</time>
        <ele>2344.0</ele>
      </trkpt>
      <trkpt lat="46.780648" lon="11.101722">
        <time>1970-01-01T00:00:00+00:00</time>
        <ele>2342.0</ele>
      </trkpt>
      <trkpt lat="46.780764" lon="11.101764">
        <time>1970-01-01T00:00:00+00:00</time>
        <ele>2336.0</ele>
      </trkpt>
      <trkpt lat="46.780871" lon="11.101748">
        <time>1970-01-01T00:00:00+00:00</time>
        <ele>2332.0</ele>
      </trkpt>
      <trkpt lat="46.780913" lon="11.101706">
        <time>1970-01-01T00:00:00+00:00</time>
        <ele>2330.0</ele>
      </trkpt>
      <trkpt lat="46.780966" lon="11.101689">
        <time>1970-01-01T00:00:00+00:00</time>
        <ele>2328.0</ele>
      </trkpt>
      <trkpt lat="46.78109" lon="11.101678">
        <time>1970-01-01T00:00:00+00:00</time>
        <ele>2323.0</ele>
      </trkpt>
      <trkpt lat="46.78112" lon="11.101613">
        <time>1970-01-01T00:00:00+00:00</time>
        <ele>2320.0</ele>
      </trkpt>
      <trkpt lat="46.781223" lon="11.101576">
        <time>1970-01-01T00:00:00+00:00</time>
        <ele>2315.0</ele>
      </trkpt>
      <trkpt lat="46.781381" lon="11.10164">
        <time>1970-01-01T00:00:00+00:00</time>
        <ele>2309.0</ele>
      </trkpt>
      <trkpt lat="46.781385" lon="11.101608">
        <time>1970-01-01T00:00:00+00:00</time>
        <ele>2308.0</ele>
      </trkpt>
      <trkpt lat="46.781418" lon="11.101581">
        <time>1970-01-01T00:00:00+00:00</time>
        <ele>2307.0</ele>
      </trkpt>
      <trkpt lat="46.781434" lon="11.101534">
        <time>1970-01-01T00:00:00+00:00</time>
        <ele>2306.0</ele>
      </trkpt>
      <trkpt lat="46.781491" lon="11.101517">
        <time>1970-01-01T00:00:00+00:00</time>
        <ele>2304.0</ele>
      </trkpt>
      <trkpt lat="46.781506" lon="11.101453">
        <time>1970-01-01T00:00:00+00:00</time>
        <ele>2302.0</ele>
      </trkpt>
      <trkpt lat="46.781589" lon="11.101405">
        <time>1970-01-01T00:00:00+00:00</time>
        <ele>2298.0</ele>
      </trkpt>
      <trkpt lat="46.781644" lon="11.10133">
        <time>1970-01-01T00:00:00+00:00</time>
        <ele>2294.0</ele>
      </trkpt>
      <trkpt lat="46.781749" lon="11.101324">
        <time>1970-01-01T00:00:00+00:00</time>
        <ele>2288.0</ele>
      </trkpt>
      <trkpt lat="46.781796" lon="11.101351">
        <time>1970-01-01T00:00:00+00:00</time>
        <ele>2286.0</ele>
      </trkpt>
      <trkpt lat="46.78184" lon="11.101329">
        <time>1970-01-01T00:00:00+00:00</time>
        <ele>2284.0</ele>
      </trkpt>
      <trkpt lat="46.781861" lon="11.101244">
        <time>1970-01-01T00:00:00+00:00</time>
        <ele>2281.0</ele>
      </trkpt>
      <trkpt lat="46.781853" lon="11.101207">
        <time>1970-01-01T00:00:00+00:00</time>
        <ele>2280.0</ele>
      </trkpt>
      <trkpt lat="46.781892" lon="11.101147">
        <time>1970-01-01T00:00:00+00:00</time>
        <ele>2277.0</ele>
      </trkpt>
      <trkpt lat="46.781952" lon="11.101185">
        <time>1970-01-01T00:00:00+00:00</time>
        <ele>2275.0</ele>
      </trkpt>
      <trkpt lat="46.782017" lon="11.101259">
        <time>1970-01-01T00:00:00+00:00</time>
        <ele>2274.0</ele>
      </trkpt>
      <trkpt lat="46.782046" lon="11.10127">
        <time>1970-01-01T00:00:00+00:00</time>
        <ele>2273.0</ele>
      </trkpt>
      <trkpt lat="46.782074" lon="11.101234">
        <time>1970-01-01T00:00:00+00:00</time>
        <ele>2271.0</ele>
      </trkpt>
      <trkpt lat="46.782143" lon="11.101244">
        <time>1970-01-01T00:00:00+00:00</time>
        <ele>2268.0</ele>
      </trkpt>
      <trkpt lat="46.7822" lon="11.101131">
        <time>1970-01-01T00:00:00+00:00</time>
        <ele>2262.0</ele>
      </trkpt>
      <trkpt lat="46.782309" lon="11.101126">
        <time>1970-01-01T00:00:00+00:00</time>
        <ele>2256.0</ele>
      </trkpt>
      <trkpt lat="46.782474" lon="11.100955">
        <time>1970-01-01T00:00:00+00:00</time>
        <ele>2244.0</ele>
      </trkpt>
      <trkpt lat="46.78254" lon="11.100944">
        <time>1970-01-01T00:00:00+00:00</time>
        <ele>2240.0</ele>
      </trkpt>
      <trkpt lat="46.782584" lon="11.10088">
        <time>1970-01-01T00:00:00+00:00</time>
        <ele>2237.0</ele>
      </trkpt>
      <trkpt lat="46.782663" lon="11.100863">
        <time>1970-01-01T00:00:00+00:00</time>
        <ele>2233.0</ele>
      </trkpt>
      <trkpt lat="46.782731" lon="11.10089">
        <time>1970-01-01T00:00:00+00:00</time>
        <ele>2230.0</ele>
      </trkpt>
      <trkpt lat="46.782768" lon="11.100719">
        <time>1970-01-01T00:00:00+00:00</time>
        <ele>2226.0</ele>
      </trkpt>
      <trkpt lat="46.782834" lon="11.100665">
        <time>1970-01-01T00:00:00+00:00</time>
        <ele>2222.0</ele>
      </trkpt>
      <trkpt lat="46.7829" lon="11.100644">
        <time>1970-01-01T00:00:00+00:00</time>
        <ele>2219.0</ele>
      </trkpt>
      <trkpt lat="46.78293" lon="11.100547">
        <time>1970-01-01T00:00:00+00:00</time>
        <ele>2217.0</ele>
      </trkpt>
      <trkpt lat="46.782944" lon="11.100418">
        <time>1970-01-01T00:00:00+00:00</time>
        <ele>2214.0</ele>
      </trkpt>
      <trkpt lat="46.782996" lon="11.100386">
        <time>1970-01-01T00:00:00+00:00</time>
        <ele>2212.0</ele>
      </trkpt>
      <trkpt lat="46.783106" lon="11.100461">
        <time>1970-01-01T00:00:00+00:00</time>
        <ele>2209.0</ele>
      </trkpt>
      <trkpt lat="46.783282" lon="11.100493">
        <time>1970-01-01T00:00:00+00:00</time>
        <ele>2202.0</ele>
      </trkpt>
      <trkpt lat="46.783547" lon="11.100611">
        <time>1970-01-01T00:00:00+00:00</time>
        <ele>2196.0</ele>
      </trkpt>
      <trkpt lat="46.783604" lon="11.100551">
        <time>1970-01-01T00:00:00+00:00</time>
        <ele>2194.0</ele>
      </trkpt>
      <trkpt lat="46.78384" lon="11.100558">
        <time>1970-01-01T00:00:00+00:00</time>
        <ele>2188.0</ele>
      </trkpt>
      <trkpt lat="46.784061" lon="11.100762">
        <time>1970-01-01T00:00:00+00:00</time>
        <ele>2186.0</ele>
      </trkpt>
      <trkpt lat="46.78423" lon="11.100837">
        <time>1970-01-01T00:00:00+00:00</time>
        <ele>2183.0</ele>
      </trkpt>
      <trkpt lat="46.784332" lon="11.100936">
        <time>1970-01-01T00:00:00+00:00</time>
        <ele>2182.0</ele>
      </trkpt>
      <trkpt lat="46.784419" lon="11.100928">
        <time>1970-01-01T00:00:00+00:00</time>
        <ele>2179.0</ele>
      </trkpt>
      <trkpt lat="46.784518" lon="11.100858">
        <time>1970-01-01T00:00:00+00:00</time>
        <ele>2175.0</ele>
      </trkpt>
      <trkpt lat="46.784698" lon="11.101009">
        <time>1970-01-01T00:00:00+00:00</time>
        <ele>2174.0</ele>
      </trkpt>
      <trkpt lat="46.784878" lon="11.10118">
        <time>1970-01-01T00:00:00+00:00</time>
        <ele>2173.0</ele>
      </trkpt>
      <trkpt lat="46.785025" lon="11.101481">
        <time>1970-01-01T00:00:00+00:00</time>
        <ele>2175.0</ele>
      </trkpt>
      <trkpt lat="46.785124" lon="11.101491">
        <time>1970-01-01T00:00:00+00:00</time>
        <ele>2173.0</ele>
      </trkpt>
      <trkpt lat="46.785219" lon="11.101443">
        <time>1970-01-01T00:00:00+00:00</time>
        <ele>2171.0</ele>
      </trkpt>
      <trkpt lat="46.785366" lon="11.101475">
        <time>1970-01-01T00:00:00+00:00</time>
        <ele>2169.0</ele>
      </trkpt>
      <trkpt lat="46.785505" lon="11.101613">
        <time>1970-01-01T00:00:00+00:00</time>
        <ele>2169.0</ele>
      </trkpt>
      <trkpt lat="46.78566" lon="11.101653">
        <time>1970-01-01T00:00:00+00:00</time>
        <ele>2167.0</ele>
      </trkpt>
      <trkpt lat="46.786222" lon="11.10163">
        <time>1970-01-01T00:00:00+00:00</time>
        <ele>2155.0</ele>
      </trkpt>
      <trkpt lat="46.786369" lon="11.101673">
        <time>1970-01-01T00:00:00+00:00</time>
        <ele>2152.0</ele>
      </trkpt>
      <trkpt lat="46.786703" lon="11.102052">
        <time>1970-01-01T00:00:00+00:00</time>
        <ele>2147.0</ele>
      </trkpt>
      <trkpt lat="46.787228" lon="11.102248">
        <time>1970-01-01T00:00:00+00:00</time>
        <ele>2138.0</ele>
      </trkpt>
      <trkpt lat="46.787309" lon="11.102295">
        <time>1970-01-01T00:00:00+00:00</time>
        <ele>2136.0</ele>
      </trkpt>
      <trkpt lat="46.787392" lon="11.102445">
        <time>1970-01-01T00:00:00+00:00</time>
        <ele>2136.0</ele>
      </trkpt>
      <trkpt lat="46.787538" lon="11.102887">
        <time>1970-01-01T00:00:00+00:00</time>
        <ele>2137.0</ele>
      </trkpt>
      <trkpt lat="46.787648" lon="11.103003">
        <time>1970-01-01T00:00:00+00:00</time>
        <ele>2135.0</ele>
      </trkpt>
      <trkpt lat="46.787726" lon="11.103037">
        <time>1970-01-01T00:00:00+00:00</time>
        <ele>2134.0</ele>
      </trkpt>
      <trkpt lat="46.787809" lon="11.103003">
        <time>1970-01-01T00:00:00+00:00</time>
        <ele>2131.0</ele>
      </trkpt>
      <trkpt lat="46.788125" lon="11.102965">
        <time>1970-01-01T00:00:00+00:00</time>
        <ele>2125.0</ele>
      </trkpt>
      <trkpt lat="46.78825" lon="11.103041">
        <time>1970-01-01T00:00:00+00:00</time>
        <ele>2127.0</ele>
      </trkpt>
      <trkpt lat="46.788348" lon="11.103006">
        <time>1970-01-01T00:00:00+00:00</time>
        <ele>2124.0</ele>
      </trkpt>
      <trkpt lat="46.788327" lon="11.1029">
        <time>1970-01-01T00:00:00+00:00</time>
        <ele>2121.0</ele>
      </trkpt>
      <trkpt lat="46.787921" lon="11.102623">
        <time>1970-01-01T00:00:00+00:00</time>
        <ele>2119.0</ele>
      </trkpt>
      <trkpt lat="46.787882" lon="11.102511">
        <time>1970-01-01T00:00:00+00:00</time>
        <ele>2118.0</ele>
      </trkpt>
      <trkpt lat="46.787971" lon="11.102175">
        <time>1970-01-01T00:00:00+00:00</time>
        <ele>2109.0</ele>
      </trkpt>
      <trkpt lat="46.787926" lon="11.101815">
        <time>1970-01-01T00:00:00+00:00</time>
        <ele>2106.0</ele>
      </trkpt>
      <trkpt lat="46.787755" lon="11.101416">
        <time>1970-01-01T00:00:00+00:00</time>
        <ele>2106.0</ele>
      </trkpt>
      <trkpt lat="46.787765" lon="11.100986">
        <time>1970-01-01T00:00:00+00:00</time>
        <ele>2099.0</ele>
      </trkpt>
      <trkpt lat="46.787811" lon="11.100833">
        <time>1970-01-01T00:00:00+00:00</time>
        <ele>2096.0</ele>
      </trkpt>
      <trkpt lat="46.78787" lon="11.100816">
        <time>1970-01-01T00:00:00+00:00</time>
        <ele>2094.0</ele>
      </trkpt>
      <trkpt lat="46.787993" lon="11.101167">
        <time>1970-01-01T00:00:00+00:00</time>
        <ele>2093.0</ele>
      </trkpt>
      <trkpt lat="46.788273" lon="11.101592">
        <time>1970-01-01T00:00:00+00:00</time>
        <ele>2087.0</ele>
      </trkpt>
      <trkpt lat="46.788485" lon="11.10178">
        <time>1970-01-01T00:00:00+00:00</time>
        <ele>2083.0</ele>
      </trkpt>
      <trkpt lat="46.788921" lon="11.102056">
        <time>1970-01-01T00:00:00+00:00</time>
        <ele>2077.0</ele>
      </trkpt>
      <trkpt lat="46.789234" lon="11.102166">
        <time>1970-01-01T00:00:00+00:00</time>
        <ele>2075.0</ele>
      </trkpt>
      <trkpt lat="46.78994" lon="11.102115">
        <time>1970-01-01T00:00:00+00:00</time>
        <ele>2059.0</ele>
      </trkpt>
      <trkpt lat="46.790057" lon="11.102132">
        <time>1970-01-01T00:00:00+00:00</time>
        <ele>2059.0</ele>
      </trkpt>
      <trkpt lat="46.790222" lon="11.102066">
        <time>1970-01-01T00:00:00+00:00</time>
        <ele>2054.0</ele>
      </trkpt>
      <trkpt lat="46.790424" lon="11.10208">
        <time>1970-01-01T00:00:00+00:00</time>
        <ele>2054.0</ele>
      </trkpt>
      <trkpt lat="46.790485" lon="11.102034">
        <time>1970-01-01T00:00:00+00:00</time>
        <ele>2052.0</ele>
      </trkpt>
      <trkpt lat="46.790405" lon="11.10196">
        <time>1970-01-01T00:00:00+00:00</time>
        <ele>2050.0</ele>
      </trkpt>
      <trkpt lat="46.789984" lon="11.101689">
        <time>1970-01-01T00:00:00+00:00</time>
        <ele>2046.0</ele>
      </trkpt>
      <trkpt lat="46.789687" lon="11.101579">
        <time>1970-01-01T00:00:00+00:00</time>
        <ele>2046.0</ele>
      </trkpt>
      <trkpt lat="46.789412" lon="11.101027">
        <time>1970-01-01T00:00:00+00:00</time>
        <ele>2036.0</ele>
      </trkpt>
      <trkpt lat="46.789356" lon="11.100854">
        <time>1970-01-01T00:00:00+00:00</time>
        <ele>2034.0</ele>
      </trkpt>
      <trkpt lat="46.789393" lon="11.100787">
        <time>1970-01-01T00:00:00+00:00</time>
        <ele>2032.0</ele>
      </trkpt>
      <trkpt lat="46.790483" lon="11.100857">
        <time>1970-01-01T00:00:00+00:00</time>
        <ele>2019.0</ele>
      </trkpt>
      <trkpt lat="46.790865" lon="11.100814">
        <time>1970-01-01T00:00:00+00:00</time>
        <ele>2013.0</ele>
      </trkpt>
      <trkpt lat="46.791434" lon="11.100584">
        <time>1970-01-01T00:00:00+00:00</time>
        <ele>2002.0</ele>
      </trkpt>
      <trkpt lat="46.791906" lon="11.100435">
        <time>1970-01-01T00:00:00+00:00</time>
        <ele>1992.0</ele>
      </trkpt>
      <trkpt lat="46.792156" lon="11.100356">
        <time>1970-01-01T00:00:00+00:00</time>
        <ele>1986.0</ele>
      </trkpt>
      <trkpt lat="46.7924" lon="11.100905">
        <time>1970-01-01T00:00:00+00:00</time>
        <ele>1987.0</ele>
      </trkpt>
      <trkpt lat="46.792498" lon="11.101023">
        <time>1970-01-01T00:00:00+00:00</time>
        <ele>1986.0</ele>
      </trkpt>
      <trkpt lat="46.792561" lon="11.100982">
        <time>1970-01-01T00:00:00+00:00</time>
        <ele>1983.0</ele>
      </trkpt>
      <trkpt lat="46.792403" lon="11.100581">
        <time>1970-01-01T00:00:00+00:00</time>
        <ele>1982.0</ele>
      </trkpt>
      <trkpt lat="46.792399" lon="11.100242">
        <time>1970-01-01T00:00:00+00:00</time>
        <ele>1978.0</ele>
      </trkpt>
      <trkpt lat="46.792462" lon="11.099855">
        <time>1970-01-01T00:00:00+00:00</time>
        <ele>1973.0</ele>
      </trkpt>
      <trkpt lat="46.791971" lon="11.098923">
        <time>1970-01-01T00:00:00+00:00</time>
        <ele>1964.0</ele>
      </trkpt>
      <trkpt lat="46.791914" lon="11.098801">
        <time>1970-01-01T00:00:00+00:00</time>
        <ele>1962.0</ele>
      </trkpt>
      <trkpt lat="46.791649" lon="11.098446">
        <time>1970-01-01T00:00:00+00:00</time>
        <ele>1956.0</ele>
      </trkpt>
      <trkpt lat="46.791409" lon="11.098084">
        <time>1970-01-01T00:00:00+00:00</time>
        <ele>1951.0</ele>
      </trkpt>
      <trkpt lat="46.791116" lon="11.097438">
        <time>1970-01-01T00:00:00+00:00</time>
        <ele>1938.0</ele>
      </trkpt>
      <trkpt lat="46.79077" lon="11.09699">
        <time>1970-01-01T00:00:00+00:00</time>
        <ele>1936.0</ele>
      </trkpt>
      <trkpt lat="46.790225" lon="11.09599">
        <time>1970-01-01T00:00:00+00:00</time>
        <ele>1928.0</ele>
      </trkpt>
      <trkpt lat="46.790133" lon="11.09579">
        <time>1970-01-01T00:00:00+00:00</time>
        <ele>1929.0</ele>
      </trkpt>
      <trkpt lat="46.790174" lon="11.09554">
        <time>1970-01-01T00:00:00+00:00</time>
        <ele>1923.0</ele>
      </trkpt>
      <trkpt lat="46.790254" lon="11.095372">
        <time>1970-01-01T00:00:00+00:00</time>
        <ele>1917.0</ele>
      </trkpt>
      <trkpt lat="46.790493" lon="11.095077">
        <time>1970-01-01T00:00:00+00:00</time>
        <ele>1907.0</ele>
      </trkpt>
      <trkpt lat="46.790512" lon="11.094098">
        <time>1970-01-01T00:00:00+00:00</time>
        <ele>1900.0</ele>
      </trkpt>
      <trkpt lat="46.790329" lon="11.093742">
        <time>1970-01-01T00:00:00+00:00</time>
        <ele>1904.0</ele>
      </trkpt>
      <trkpt lat="46.790354" lon="11.093667">
        <time>1970-01-01T00:00:00+00:00</time>
        <ele>1902.0</ele>
      </trkpt>
      <trkpt lat="46.790424" lon="11.09371">
        <time>1970-01-01T00:00:00+00:00</time>
        <ele>1899.0</ele>
      </trkpt>
      <trkpt lat="46.790586" lon="11.093919">
        <time>1970-01-01T00:00:00+00:00</time>
        <ele>1897.0</ele>
      </trkpt>
      <trkpt lat="46.790795" lon="11.094071">
        <time>1970-01-01T00:00:00+00:00</time>
        <ele>1890.0</ele>
      </trkpt>
      <trkpt lat="46.791054" lon="11.094625">
        <time>1970-01-01T00:00:00+00:00</time>
        <ele>1884.0</ele>
      </trkpt>
      <trkpt lat="46.791232" lon="11.094892">
        <time>1970-01-01T00:00:00+00:00</time>
        <ele>1875.0</ele>
      </trkpt>
      <trkpt lat="46.791272" lon="11.095008">
        <time>1970-01-01T00:00:00+00:00</time>
        <ele>1873.0</ele>
      </trkpt>
      <trkpt lat="46.791376" lon="11.095366">
        <time>1970-01-01T00:00:00+00:00</time>
        <ele>1869.0</ele>
      </trkpt>
      <trkpt lat="46.791571" lon="11.095618">
        <time>1970-01-01T00:00:00+00:00</time>
        <ele>1868.0</ele>
      </trkpt>
      <trkpt lat="46.791717" lon="11.095686">
        <time>1970-01-01T00:00:00+00:00</time>
        <ele>1866.0</ele>
      </trkpt>
      <trkpt lat="46.792275" lon="11.095822">
        <time>1970-01-01T00:00:00+00:00</time>
        <ele>1857.0</ele>
      </trkpt>
      <trkpt lat="46.792612" lon="11.095823">
        <time>1970-01-01T00:00:00+00:00</time>
        <ele>1850.0</ele>
      </trkpt>
      <trkpt lat="46.792804" lon="11.096087">
        <time>1970-01-01T00:00:00+00:00</time>
        <ele>1856.0</ele>
      </trkpt>
      <trkpt lat="46.792924" lon="11.096116">
        <time>1970-01-01T00:00:00+00:00</time>
        <ele>1853.0</ele>
      </trkpt>
      <trkpt lat="46.793001" lon="11.095977">
        <time>1970-01-01T00:00:00+00:00</time>
        <ele>1845.0</ele>
      </trkpt>
      <trkpt lat="46.792964" lon="11.095869">
        <time>1970-01-01T00:00:00+00:00</time>
        <ele>1842.0</ele>
      </trkpt>
      <trkpt lat="46.79301" lon="11.0956">
        <time>1970-01-01T00:00:00+00:00</time>
        <ele>1832.0</ele>
      </trkpt>
      <trkpt lat="46.792966" lon="11.09515">
        <time>1970-01-01T00:00:00+00:00</time>
        <ele>1821.0</ele>
      </trkpt>
      <trkpt lat="46.792923" lon="11.095063">
        <time>1970-01-01T00:00:00+00:00</time>
        <ele>1820.0</ele>
      </trkpt>
      <trkpt lat="46.792998" lon="11.09506">
        <time>1970-01-01T00:00:00+00:00</time>
        <ele>1818.0</ele>
      </trkpt>
      <trkpt lat="46.793559" lon="11.095296">
        <time>1970-01-01T00:00:00+00:00</time>
        <ele>1818.0</ele>
      </trkpt>
      <trkpt lat="46.794004" lon="11.095613">
        <time>1970-01-01T00:00:00+00:00</time>
        <ele>1806.0</ele>
      </trkpt>
      <trkpt lat="46.794076" lon="11.095629">
        <time>1970-01-01T00:00:00+00:00</time>
        <ele>1802.0</ele>
      </trkpt>
      <trkpt lat="46.794112" lon="11.095562">
        <time>1970-01-01T00:00:00+00:00</time>
        <ele>1798.0</ele>
      </trkpt>
      <trkpt lat="46.793835" lon="11.094266">
        <time>1970-01-01T00:00:00+00:00</time>
        <ele>1767.0</ele>
      </trkpt>
      <trkpt lat="46.793816" lon="11.093939">
        <time>1970-01-01T00:00:00+00:00</time>
        <ele>1754.0</ele>
      </trkpt>
      <trkpt lat="46.793867" lon="11.093776">
        <time>1970-01-01T00:00:00+00:00</time>
        <ele>1748.0</ele>
      </trkpt>
      <trkpt lat="46.794043" lon="11.093865">
        <time>1970-01-01T00:00:00+00:00</time>
        <ele>1746.0</ele>
      </trkpt>
      <trkpt lat="46.794236" lon="11.093931">
        <time>1970-01-01T00:00:00+00:00</time>
        <ele>1744.0</ele>
      </trkpt>
      <trkpt lat="46.794702" lon="11.093866">
        <time>1970-01-01T00:00:00+00:00</time>
        <ele>1724.0</ele>
      </trkpt>
      <trkpt lat="46.794906" lon="11.093938">
        <time>1970-01-01T00:00:00+00:00</time>
        <ele>1718.0</ele>
      </trkpt>
      <trkpt lat="46.794989" lon="11.094087">
        <time>1970-01-01T00:00:00+00:00</time>
        <ele>1717.0</ele>
      </trkpt>
      <trkpt lat="46.795077" lon="11.094171">
        <time>1970-01-01T00:00:00+00:00</time>
        <ele>1715.0</ele>
      </trkpt>
      <trkpt lat="46.795012" lon="11.093941">
        <time>1970-01-01T00:00:00+00:00</time>
        <ele>1713.0</ele>
      </trkpt>
      <trkpt lat="46.794982" lon="11.093638">
        <time>1970-01-01T00:00:00+00:00</time>
        <ele>1708.0</ele>
      </trkpt>
      <trkpt lat="46.79491" lon="11.093396">
        <time>1970-01-01T00:00:00+00:00</time>
        <ele>1705.0</ele>
      </trkpt>
      <trkpt lat="46.794833" lon="11.093226">
        <time>1970-01-01T00:00:00+00:00</time>
        <ele>1703.0</ele>
      </trkpt>
      <trkpt lat="46.79466" lon="11.092976">
        <time>1970-01-01T00:00:00+00:00</time>
        <ele>1700.0</ele>
      </trkpt>
      <trkpt lat="46.79462" lon="11.092839">
        <time>1970-01-01T00:00:00+00:00</time>
        <ele>1695.0</ele>
      </trkpt>
      <trkpt lat="46.794506" lon="11.092577">
        <time>1970-01-01T00:00:00+00:00</time>
        <ele>1688.0</ele>
      </trkpt>
      <trkpt lat="46.794508" lon="11.092517">
        <time>1970-01-01T00:00:00+00:00</time>
        <ele>1686.0</ele>
      </trkpt>
      <trkpt lat="46.794538" lon="11.092491">
        <time>1970-01-01T00:00:00+00:00</time>
        <ele>1684.0</ele>
      </trkpt>
      <trkpt lat="46.794554" lon="11.092477">
        <time>1970-01-01T00:00:00+00:00</time>
        <ele>1683.0</ele>
      </trkpt>
      <trkpt lat="46.794594" lon="11.092339">
        <time>1970-01-01T00:00:00+00:00</time>
        <ele>1678.0</ele>
      </trkpt>
      <trkpt lat="46.794676" lon="11.092146">
        <time>1970-01-01T00:00:00+00:00</time>
        <ele>1671.0</ele>
      </trkpt>
      <trkpt lat="46.794892" lon="11.091759">
        <time>1970-01-01T00:00:00+00:00</time>
        <ele>1659.0</ele>
      </trkpt>
      <trkpt lat="46.794944" lon="11.091538">
        <time>1970-01-01T00:00:00+00:00</time>
        <ele>1656.0</ele>
      </trkpt>
      <trkpt lat="46.794925" lon="11.09135">
        <time>1970-01-01T00:00:00+00:00</time>
        <ele>1658.0</ele>
      </trkpt>
      <trkpt lat="46.794824" lon="11.091197">
        <time>1970-01-01T00:00:00+00:00</time>
        <ele>1659.0</ele>
      </trkpt>
      <trkpt lat="46.794718" lon="11.091138">
        <time>1970-01-01T00:00:00+00:00</time>
        <ele>1661.0</ele>
      </trkpt>
      <trkpt lat="46.794605" lon="11.090892">
        <time>1970-01-01T00:00:00+00:00</time>
        <ele>1659.0</ele>
      </trkpt>
      <trkpt lat="46.794506" lon="11.090725">
        <time>1970-01-01T00:00:00+00:00</time>
        <ele>1662.0</ele>
      </trkpt>
      <trkpt lat="46.794825" lon="11.090345">
        <time>1970-01-01T00:00:00+00:00</time>
        <ele>1641.0</ele>
      </trkpt>
      <trkpt lat="46.794884" lon="11.090266">
        <time>1970-01-01T00:00:00+00:00</time>
        <ele>1639.0</ele>
      </trkpt>
      <trkpt lat="46.794819" lon="11.090139">
        <time>1970-01-01T00:00:00+00:00</time>
        <ele>1640.0</ele>
      </trkpt>
      <trkpt lat="46.794846" lon="11.090118">
        <time>1970-01-01T00:00:00+00:00</time>
        <ele>1639.0</ele>
      </trkpt>
    </trkseg>
  </trk>
</gpx>
